Observation data for Lake McClellan 2NW on 11/18/2019      Previous  Date       Current Mesonet Observations  Soil Data  Daily Summary Page  Observations in Plain Language
KMC5 180600Z 23006KT 05/M02 A3003 RMK A01 T00531015  RH  061%=      5-min Rain = 0
KMC5 180601Z 22007KT 05/M02 A3003 RMK A01 T00541015  RH  061%=      5-min Rain = 0
KMC5 180602Z 23007KT 05/M02 A3003 RMK A01 T00541015  RH  061%=      5-min Rain = 0
KMC5 180603Z 23007KT 06/M02 A3003 RMK A01 T00551015  RH  061%=      5-min Rain = 0
KMC5 180604Z 23006KT 05/M02 A3003 RMK A01 T00541015  RH  061%=      5-min Rain = 0
KMC5 180605Z 23006KT 05/M02 A3003 RMK A01 T00531016  RH  061%=      5-min Rain = 0
KMC5 180606Z 23006KT 05/M02 A3003 RMK A01 T00521016  RH  062%=      5-min Rain = 0
KMC5 180607Z 23006KT 05/M02 A3003 RMK A01 T00511016  RH  062%=      5-min Rain = 0
KMC5 180608Z 22006KT 05/M02 A3003 RMK A01 T00511016  RH  062%=      5-min Rain = 0
KMC5 180609Z 22006KT 05/M02 A3003 RMK A01 T00511015  RH  062%=      5-min Rain = 0
KMC5 180610Z 22006KT 05/M02 A3003 RMK A01 T00511015  RH  062%=      5-min Rain = 0
KMC5 180611Z 22006KT 05/M02 A3003 RMK A01 T00511015  RH  062%=      5-min Rain = 0
KMC5 180612Z 22007KT 05/M02 A3003 RMK A01 T00501015  RH  063%=      5-min Rain = 0
KMC5 180613Z 23006KT 05/M01 A3003 RMK A01 T00501014  RH  063%=      5-min Rain = 0
KMC5 180614Z 22007KT 05/M01 A3003 RMK A01 T00501014  RH  063%=      5-min Rain = 0
KMC5 180615Z 22007KT 05/M02 A3003 RMK A01 T00491015  RH  063%=      5-min Rain = 0
KMC5 180616Z 22007KT 05/M01 A3003 RMK A01 T00491014  RH  064%=      5-min Rain = 0
KMC5 180617Z 22007KT 05/M01 A3003 RMK A01 T00481014  RH  064%=      5-min Rain = 0
KMC5 180618Z 23007KT 05/M02 A3003 RMK A01 T00471015  RH  064%=      5-min Rain = 0
KMC5 180619Z 23006KT 05/M02 A3003 RMK A01 T00461015  RH  065%=      5-min Rain = 0
KMC5 180620Z 22006KT 05/M01 A3003 RMK A01 T00461014  RH  065%=      5-min Rain = 0
KMC5 180621Z 23006KT 05/M01 A3003 RMK A01 T00471014  RH  065%=      5-min Rain = 0
KMC5 180622Z 23007KT 05/M01 A3003 RMK A01 T00481013  RH  064%=      5-min Rain = 0
KMC5 180623Z 23007KT 05/M01 A3003 RMK A01 T00481013  RH  064%=      5-min Rain = 0
KMC5 180624Z 23006KT 05/M01 A3003 RMK A01 T00481013  RH  065%=      5-min Rain = 0
KMC5 180625Z 23006KT 05/M01 A3003 RMK A01 T00481013  RH  065%=      5-min Rain = 0
KMC5 180626Z 23006KT 05/M01 A3003 RMK A01 T00491012  RH  065%=      5-min Rain = 0
KMC5 180627Z 24006KT 05/M01 A3003 RMK A01 T00491012  RH  064%=      5-min Rain = 0
KMC5 180628Z 24006KT 05/M01 A3003 RMK A01 T00491013  RH  064%=      5-min Rain = 0
KMC5 180629Z 23006KT 05/M01 A3003 RMK A01 T00481013  RH  065%=      5-min Rain = 0
KMC5 180630Z 24006KT 05/M01 A3003 RMK A01 T00461013  RH  065%=      5-min Rain = 0
KMC5 180631Z 23007KT 05/M01 A3003 RMK A01 T00451013  RH  066%=      5-min Rain = 0
KMC5 180632Z 23007KT 05/M01 A3003 RMK A01 T00451013  RH  066%=      5-min Rain = 0
KMC5 180633Z 23007KT 04/M01 A3003 RMK A01 T00441012  RH  067%=      5-min Rain = 0
KMC5 180634Z 24007KT 04/M01 A3003 RMK A01 T00441012  RH  067%=      5-min Rain = 0
KMC5 180635Z 24007KT 04/M01 A3003 RMK A01 T00441012  RH  067%=      5-min Rain = 0
KMC5 180636Z 24007KT 04/M01 A3003 RMK A01 T00441012  RH  067%=      5-min Rain = 0
KMC5 180637Z 24007KT 04/M01 A3003 RMK A01 T00441012  RH  067%=      5-min Rain = 0
KMC5 180638Z 24007KT 04/M01 A3003 RMK A01 T00431012  RH  067%=      5-min Rain = 0
KMC5 180639Z 24006KT 04/M01 A3003 RMK A01 T00431012  RH  068%=      5-min Rain = 0
KMC5 180640Z 24006KT 04/M01 A3003 RMK A01 T00421012  RH  068%=      5-min Rain = 0
KMC5 180641Z 24006KT 04/M01 A3003 RMK A01 T00431012  RH  067%=      5-min Rain = 0
KMC5 180642Z 24006KT 04/M01 A3003 RMK A01 T00441011  RH  067%=      5-min Rain = 0
KMC5 180643Z 24006KT 05/M01 A3003 RMK A01 T00451012  RH  067%=      5-min Rain = 0
KMC5 180644Z 24006KT 05/M01 A3003 RMK A01 T00461011  RH  066%=      5-min Rain = 0
KMC5 180645Z 24007KT 05/M01 A3003 RMK A01 T00461012  RH  066%=      5-min Rain = 0
KMC5 180646Z 24007KT 05/M01 A3003 RMK A01 T00471011  RH  066%=      5-min Rain = 0
KMC5 180647Z 24007KT 05/M01 A3003 RMK A01 T00471011  RH  066%=      5-min Rain = 0
KMC5 180648Z 24007KT 05/M01 A3003 RMK A01 T00471011  RH  066%=      5-min Rain = 0
KMC5 180649Z 24007KT 05/M01 A3003 RMK A01 T00471011  RH  066%=      5-min Rain = 0
KMC5 180650Z 25007KT 05/M01 A3003 RMK A01 T00481011  RH  066%=      5-min Rain = 0
KMC5 180651Z 25007KT 05/M01 A3003 RMK A01 T00481010  RH  066%=      5-min Rain = 0
KMC5 180652Z 24007KT 05/M01 A3003 RMK A01 T00491010  RH  065%=      5-min Rain = 0
KMC5 180653Z 24007KT 05/M01 A3002 RMK A01 T00511010  RH  065%=      5-min Rain = 0
KMC5 180654Z 24007KT 05/M01 A3003 RMK A01 T00511010  RH  064%=      5-min Rain = 0
KMC5 180655Z 24008KT 05/M01 A3002 RMK A01 T00511010  RH  064%=      5-min Rain = 0
KMC5 180656Z 24008KT 05/M01 A3002 RMK A01 T00521010  RH  064%=      5-min Rain = 0
KMC5 180657Z 24008KT 05/M01 A3002 RMK A01 T00521010  RH  064%=      5-min Rain = 0
KMC5 180658Z 24008KT 05/M01 A3002 RMK A01 T00511010  RH  065%=      5-min Rain = 0
KMC5 180659Z 25009KT 05/M01 A3002 RMK A01 T00501010  RH  065%=      5-min Rain = 0
KMC5 180700Z 24009KT 05/M01 A3002 RMK A01 T00521010  RH  065%=      5-min Rain = 0
KMC5 180701Z 24008KT 05/M01 A3002 RMK A01 T00521010  RH  064%=      5-min Rain = 0
KMC5 180702Z 24007KT 05/M01 A3002 RMK A01 T00521010  RH  064%=      5-min Rain = 0
KMC5 180703Z 24007KT 05/M01 A3002 RMK A01 T00511010  RH  065%=      5-min Rain = 0
KMC5 180704Z 24007KT 05/M01 A3002 RMK A01 T00501011  RH  065%=      5-min Rain = 0
KMC5 180705Z 24007KT 05/M01 A3002 RMK A01 T00491011  RH  065%=      5-min Rain = 0
KMC5 180706Z 24006KT 05/M01 A3002 RMK A01 T00491011  RH  065%=      5-min Rain = 0
KMC5 180707Z 24007KT 05/M01 A3002 RMK A01 T00491011  RH  065%=      5-min Rain = 0
KMC5 180708Z 24007KT 05/M01 A3002 RMK A01 T00491011  RH  065%=      5-min Rain = 0
KMC5 180709Z 24007KT 05/M01 A3002 RMK A01 T00491010  RH  065%=      5-min Rain = 0
KMC5 180710Z 24007KT 05/M01 A3002 RMK A01 T00491010  RH  065%=      5-min Rain = 0
KMC5 180711Z 24007KT 05/M01 A3002 RMK A01 T00491010  RH  065%=      5-min Rain = 0
KMC5 180712Z 24008KT 05/M01 A3002 RMK A01 T00491010  RH  066%=      5-min Rain = 0
KMC5 180713Z 24008KT 05/M01 A3002 RMK A01 T00491009  RH  066%=      5-min Rain = 0
KMC5 180714Z 24007KT 05/M01 A3001 RMK A01 T00491010  RH  066%=      5-min Rain = 0
KMC5 180715Z 23006KT 05/M01 A3001 RMK A01 T00491010  RH  066%=      5-min Rain = 0
KMC5 180716Z 23007KT 05/M01 A3001 RMK A01 T00481010  RH  066%=      5-min Rain = 0
KMC5 180717Z 23007KT 05/M01 A3001 RMK A01 T00471010  RH  066%=      5-min Rain = 0
KMC5 180718Z 24007KT 05/M01 A3001 RMK A01 T00461010  RH  067%=      5-min Rain = 0
KMC5 180719Z 24007KT 05/M01 A3001 RMK A01 T00451010  RH  067%=      5-min Rain = 0
KMC5 180720Z 24006KT 04/M01 A3001 RMK A01 T00441011  RH  068%=      5-min Rain = 0
KMC5 180721Z 24006KT 04/M01 A3001 RMK A01 T00431010  RH  068%=      5-min Rain = 0
KMC5 180722Z 24005KT 04/M01 A3001 RMK A01 T00431010  RH  068%=      5-min Rain = 0
KMC5 180723Z 24005KT 04/M01 A3001 RMK A01 T00421011  RH  069%=      5-min Rain = 0
KMC5 180724Z 25005KT 04/M01 A3001 RMK A01 T00401011  RH  069%=      5-min Rain = 0
KMC5 180725Z 25006KT 04/M01 A3001 RMK A01 T00401010  RH  070%=      5-min Rain = 0
KMC5 180726Z 25007KT 04/M01 A3001 RMK A01 T00391010  RH  070%=      5-min Rain = 0
KMC5 180727Z 25007KT 04/M01 A3001 RMK A01 T00391010  RH  071%=      5-min Rain = 0
KMC5 180728Z 25007KT 04/M01 A3001 RMK A01 T00401009  RH  071%=      5-min Rain = 0
KMC5 180729Z 25008KT 04/M01 A3001 RMK A01 T00391009  RH  070%=      5-min Rain = 0
KMC5 180730Z 25008KT 04/M01 A3001 RMK A01 T00391009  RH  071%=      5-min Rain = 0
KMC5 180731Z 25009KT 04/M01 A3001 RMK A01 T00381008  RH  072%=      5-min Rain = 0
KMC5 180732Z 25010KT 04/M01 A3001 RMK A01 T00401006  RH  072%=      5-min Rain = 0
KMC5 180733Z 25010KT 04/M01 A3001 RMK A01 T00431005  RH  071%=      5-min Rain = 0
KMC5 180734Z 26010KT 05/M01 A3001 RMK A01 T00451005  RH  070%=      5-min Rain = 0
KMC5 180735Z 26010KT 05/M01 A3001 RMK A01 T00461005  RH  069%=      5-min Rain = 0
KMC5 180736Z 26010KT 05/M01 A3001 RMK A01 T00471005  RH  069%=      5-min Rain = 0
KMC5 180737Z 25010KT 05/M01 A3001 RMK A01 T00471006  RH  069%=      5-min Rain = 0
KMC5 180738Z 26010KT 05/M01 A3001 RMK A01 T00471006  RH  069%=      5-min Rain = 0
KMC5 180739Z 26010KT 05/M01 A3001 RMK A01 T00471005  RH  069%=      5-min Rain = 0
KMC5 180740Z 26010KT 05/M01 A3001 RMK A01 T00471005  RH  069%=      5-min Rain = 0
KMC5 180741Z 25009KT 05/M01 A30 RMK A01 T00461005  RH  069%=      5-min Rain = 0
KMC5 180742Z 25010KT 05/M01 A30 RMK A01 T00471005  RH  069%=      5-min Rain = 0
KMC5 180743Z 25010KT 05/M01 A30 RMK A01 T00461005  RH  070%=      5-min Rain = 0
KMC5 180744Z 25010KT 05/M01 A30 RMK A01 T00451005  RH  070%=      5-min Rain = 0
KMC5 180745Z 25010KT 05/M00 A30 RMK A01 T00451004  RH  070%=      5-min Rain = 0
KMC5 180746Z 25010KT 05/M00 A30 RMK A01 T00461004  RH  070%=      5-min Rain = 0
KMC5 180747Z 25010KT 05/M00 A30 RMK A01 T00461004  RH  070%=      5-min Rain = 0
KMC5 180748Z 25010KT 05/M00 A30 RMK A01 T00461004  RH  070%=      5-min Rain = 0
KMC5 180749Z 25011KT 05/M00 A30 RMK A01 T00461004  RH  070%=      5-min Rain = 0
KMC5 180750Z 25010KT 05/M00 A30 RMK A01 T00461004  RH  070%=      5-min Rain = 0
KMC5 180751Z 25010KT 05/M00 A30 RMK A01 T00461004  RH  070%=      5-min Rain = 0
KMC5 180752Z 25011KT 05/M00 A30 RMK A01 T00471003  RH  070%=      5-min Rain = 0
KMC5 180753Z 25011KT 05/M00 A30 RMK A01 T00461003  RH  070%=      5-min Rain = 0
KMC5 180754Z 25010KT 05/M00 A30 RMK A01 T00471003  RH  070%=      5-min Rain = 0
KMC5 180755Z 25010KT 05/M00 A30 RMK A01 T00461003  RH  070%=      5-min Rain = 0
KMC5 180756Z 25010KT 05/M00 A30 RMK A01 T00451004  RH  071%=      5-min Rain = 0
KMC5 180757Z 25010KT 05/M00 A30 RMK A01 T00451003  RH  071%=      5-min Rain = 0
KMC5 180758Z 25010KT 05/M00 A30 RMK A01 T00451003  RH  071%=      5-min Rain = 0
KMC5 180759Z 25010KT 04/M00 A30 RMK A01 T00441004  RH  071%=      5-min Rain = 0
KMC5 180800Z 25010KT 04/M00 A30 RMK A01 T00431004  RH  071%=      5-min Rain = 0
KMC5 180801Z 25010KT 04/M00 A30 RMK A01 T00431004  RH  072%=      5-min Rain = 0
KMC5 180802Z 25011KT 04/M00 A30 RMK A01 T00421004  RH  072%=      5-min Rain = 0
KMC5 180803Z 25011KT 04/M00 A30 RMK A01 T00421004  RH  072%=      5-min Rain = 0
KMC5 180804Z 25011KT 04/M00 A30 RMK A01 T00411004  RH  072%=      5-min Rain = 0
KMC5 180805Z 25011KT 04/M00 A2999 RMK A01 T00411004  RH  072%=      5-min Rain = 0
KMC5 180806Z 25011KT 04/M00 A2999 RMK A01 T00411004  RH  072%=      5-min Rain = 0
KMC5 180807Z 25011KT 04/M00 A2999 RMK A01 T00411004  RH  072%=      5-min Rain = 0
KMC5 180808Z 25011KT 04/M00 A2999 RMK A01 T00411004  RH  072%=      5-min Rain = 0
KMC5 180809Z 25012KT 04/M00 A2999 RMK A01 T00411004  RH  073%=      5-min Rain = 0
KMC5 180810Z 25012KT 04/M00 A2999 RMK A01 T00411004  RH  073%=      5-min Rain = 0
KMC5 180811Z 25012KT 04/M00 A2999 RMK A01 T00411004  RH  073%=      5-min Rain = 0
KMC5 180812Z 25012KT 04/M00 A2999 RMK A01 T00411004  RH  072%=      5-min Rain = 0
KMC5 180813Z 25012KT 04/M00 A2999 RMK A01 T00411004  RH  073%=      5-min Rain = 0
KMC5 180814Z 25012KT 04/M00 A2999 RMK A01 T00401004  RH  073%=      5-min Rain = 0
KMC5 180815Z 25012KT 04/M00 A2999 RMK A01 T00411004  RH  073%=      5-min Rain = 0
KMC5 180816Z 25011KT 04/M00 A2999 RMK A01 T00411004  RH  073%=      5-min Rain = 0
KMC5 180817Z 25012KT 04/M00 A2999 RMK A01 T00411004  RH  072%=      5-min Rain = 0
KMC5 180818Z 25012KT 04/M00 A2998 RMK A01 T00421004  RH  072%=      5-min Rain = 0
KMC5 180819Z 25012KT 04/M00 A2998 RMK A01 T00411004  RH  072%=      5-min Rain = 0
KMC5 180820Z 25012KT 04/M00 A2998 RMK A01 T00421004  RH  072%=      5-min Rain = 0
KMC5 180821Z 25012KT 04/M00 A2998 RMK A01 T00421003  RH  072%=      5-min Rain = 0
KMC5 180822Z 25012KT 04/M00 A2998 RMK A01 T00421004  RH  072%=      5-min Rain = 0
KMC5 180823Z 25012KT 04/M00 A2998 RMK A01 T00421004  RH  072%=      5-min Rain = 0
KMC5 180824Z 25012KT 04/M00 A2998 RMK A01 T00421004  RH  072%=      5-min Rain = 0
KMC5 180825Z 25011KT 04/M00 A2998 RMK A01 T00421004  RH  072%=      5-min Rain = 0
KMC5 180826Z 25011KT 04/M00 A2998 RMK A01 T00421004  RH  072%=      5-min Rain = 0
KMC5 180827Z 25011KT 04/M00 A2998 RMK A01 T00421004  RH  072%=      5-min Rain = 0
KMC5 180828Z 25011KT 04/M00 A2998 RMK A01 T00421004  RH  072%=      5-min Rain = 0
KMC5 180829Z 25011KT 04/M00 A2998 RMK A01 T00411004  RH  072%=      5-min Rain = 0
KMC5 180830Z 26011KT 04/M00 A2998 RMK A01 T00411004  RH  072%=      5-min Rain = 0
KMC5 180831Z 26011KT 04/M00 A2998 RMK A01 T00421003  RH  072%=      5-min Rain = 0
KMC5 180832Z 26011KT 04/M00 A2998 RMK A01 T00421003  RH  072%=      5-min Rain = 0
KMC5 180833Z 26012KT 04/M00 A2998 RMK A01 T00431003  RH  072%=      5-min Rain = 0
KMC5 180834Z 26012KT 04/M00 A2998 RMK A01 T00431003  RH  072%=      5-min Rain = 0
KMC5 180835Z 26012KT 04/M00 A2998 RMK A01 T00441002  RH  072%=      5-min Rain = 0
KMC5 180836Z 25012KT 04/M00 A2998 RMK A01 T00441002  RH  072%=      5-min Rain = 0
KMC5 180837Z 25012KT 04/M00 A2998 RMK A01 T00441002  RH  072%=      5-min Rain = 0
KMC5 180838Z 25012KT 04/M00 A2998 RMK A01 T00441002  RH  072%=      5-min Rain = 0
KMC5 180839Z 25011KT 04/M00 A2998 RMK A01 T00441002  RH  072%=      5-min Rain = 0
KMC5 180840Z 25011KT 04/M00 A2998 RMK A01 T00441002  RH  072%=      5-min Rain = 0
KMC5 180841Z 25011KT 04/M00 A2998 RMK A01 T00441002  RH  072%=      5-min Rain = 0
KMC5 180842Z 25011KT 04/M00 A2998 RMK A01 T00441002  RH  072%=      5-min Rain = 0
KMC5 180843Z 25011KT 05/M00 A2998 RMK A01 T00451002  RH  072%=      5-min Rain = 0
KMC5 180844Z 26011KT 05/M00 A2998 RMK A01 T00451002  RH  072%=      5-min Rain = 0
KMC5 180845Z 26011KT 05/M00 A2998 RMK A01 T00471001  RH  071%=      5-min Rain = 0
KMC5 180846Z 26012KT 05/M00 A2998 RMK A01 T00481001  RH  071%=      5-min Rain = 0
KMC5 180847Z 26011KT 05/00 A2998 RMK A01 T004900-0  RH  071%=      5-min Rain = 0
KMC5 180848Z 26012KT 05/00 A2998 RMK A01 T00500000  RH  070%=      5-min Rain = 0
KMC5 180849Z 26011KT 05/00 A2998 RMK A01 T005000-0  RH  070%=      5-min Rain = 0
KMC5 180850Z 26011KT 05/00 A2998 RMK A01 T004900-0  RH  070%=      5-min Rain = 0
KMC5 180851Z 26011KT 05/00 A2998 RMK A01 T00490000  RH  070%=      5-min Rain = 0
KMC5 180852Z 26011KT 05/00 A2998 RMK A01 T00500000  RH  070%=      5-min Rain = 0
KMC5 180853Z 26011KT 05/00 A2998 RMK A01 T00500000  RH  070%=      5-min Rain = 0
KMC5 180854Z 26011KT 05/00 A2998 RMK A01 T00500001  RH  070%=      5-min Rain = 0
KMC5 180855Z 26011KT 05/00 A2998 RMK A01 T00500001  RH  070%=      5-min Rain = 0
KMC5 180856Z 26012KT 05/00 A2998 RMK A01 T00500001  RH  071%=      5-min Rain = 0
KMC5 180857Z 26011KT 05/00 A2997 RMK A01 T00500001  RH  071%=      5-min Rain = 0
KMC5 180858Z 26011KT 05/00 A2997 RMK A01 T00500001  RH  071%=      5-min Rain = 0
KMC5 180859Z 26012KT 05/00 A2997 RMK A01 T00500001  RH  071%=      5-min Rain = 0
KMC5 180900Z 26012KT 05/00 A2997 RMK A01 T00500001  RH  071%=      5-min Rain = 0
KMC5 180901Z 26012KT 05/00 A2997 RMK A01 T00500001  RH  070%=      5-min Rain = 0
KMC5 180902Z 26011KT 05/00 A2997 RMK A01 T00500001  RH  070%=      5-min Rain = 0
KMC5 180903Z 26011KT 05/00 A2997 RMK A01 T00500001  RH  071%=      5-min Rain = 0
KMC5 180904Z 26012KT 05/00 A2997 RMK A01 T00500001  RH  071%=      5-min Rain = 0
KMC5 180905Z 26011KT 05/00 A2997 RMK A01 T00490001  RH  071%=      5-min Rain = 0
KMC5 180906Z 26012KT 05/00 A2997 RMK A01 T00500001  RH  071%=      5-min Rain = 0
KMC5 180907Z 26012KT 05/00 A2997 RMK A01 T00500001  RH  071%=      5-min Rain = 0
KMC5 180908Z 26011KT 05/00 A2997 RMK A01 T00500001  RH  071%=      5-min Rain = 0
KMC5 180909Z 26012KT 05/00 A2997 RMK A01 T00500001  RH  071%=      5-min Rain = 0
KMC5 180910Z 26012KT 05/00 A2997 RMK A01 T00490001  RH  071%=      5-min Rain = 0
KMC5 180911Z 26011KT 05/00 A2997 RMK A01 T00490001  RH  071%=      5-min Rain = 0
KMC5 180912Z 26012KT 05/00 A2997 RMK A01 T00490001  RH  071%=      5-min Rain = 0
KMC5 180913Z 26012KT 05/00 A2997 RMK A01 T00490001  RH  071%=      5-min Rain = 0
KMC5 180914Z 26012KT 05/00 A2997 RMK A01 T00490001  RH  071%=      5-min Rain = 0
KMC5 180915Z 26012KT 05/00 A2997 RMK A01 T00480001  RH  071%=      5-min Rain = 0
KMC5 180916Z 25012KT 05/00 A2997 RMK A01 T00480001  RH  072%=      5-min Rain = 0
KMC5 180917Z 25012KT 05/00 A2997 RMK A01 T00480001  RH  072%=      5-min Rain = 0
KMC5 180918Z 25011KT 05/00 A2997 RMK A01 T00480001  RH  071%=      5-min Rain = 0
KMC5 180919Z 25011KT 05/00 A2997 RMK A01 T00480001  RH  071%=      5-min Rain = 0
KMC5 180920Z 26011KT 05/00 A2997 RMK A01 T00470001  RH  072%=      5-min Rain = 0
KMC5 180921Z 26011KT 05/00 A2997 RMK A01 T00470000  RH  072%=      5-min Rain = 0
KMC5 180922Z 26011KT 05/00 A2997 RMK A01 T00460001  RH  072%=      5-min Rain = 0
KMC5 180923Z 26011KT 05/00 A2996 RMK A01 T00460001  RH  073%=      5-min Rain = 0
KMC5 180924Z 26011KT 05/00 A2996 RMK A01 T00450000  RH  073%=      5-min Rain = 0
KMC5 180925Z 25011KT 05/00 A2996 RMK A01 T00450000  RH  073%=      5-min Rain = 0
KMC5 180926Z 25011KT 05/00 A2996 RMK A01 T00450001  RH  073%=      5-min Rain = 0
KMC5 180927Z 25011KT 05/00 A2996 RMK A01 T00450001  RH  073%=      5-min Rain = 0
KMC5 180928Z 25011KT 04/00 A2996 RMK A01 T00440000  RH  073%=      5-min Rain = 0
KMC5 180929Z 25011KT 04/00 A2996 RMK A01 T00440001  RH  073%=      5-min Rain = 0
KMC5 180930Z 25011KT 04/00 A2996 RMK A01 T00440001  RH  074%=      5-min Rain = 0
KMC5 180931Z 25011KT 04/00 A2996 RMK A01 T00430001  RH  074%=      5-min Rain = 0
KMC5 180932Z 25011KT 04/00 A2996 RMK A01 T00430001  RH  074%=      5-min Rain = 0
KMC5 180933Z 26011KT 04/00 A2996 RMK A01 T00430001  RH  074%=      5-min Rain = 0
KMC5 180934Z 26010KT 04/00 A2996 RMK A01 T00430001  RH  074%=      5-min Rain = 0
KMC5 180935Z 26010KT 04/00 A2996 RMK A01 T00440001  RH  074%=      5-min Rain = 0
KMC5 180936Z 26010KT 04/00 A2996 RMK A01 T00440001  RH  074%=      5-min Rain = 0
KMC5 180937Z 26011KT 04/00 A2996 RMK A01 T00440001  RH  074%=      5-min Rain = 0
KMC5 180938Z 25010KT 04/00 A2996 RMK A01 T00440001  RH  074%=      5-min Rain = 0
KMC5 180939Z 25011KT 04/00 A2996 RMK A01 T00430001  RH  074%=      5-min Rain = 0
KMC5 180940Z 25010KT 04/00 A2995 RMK A01 T00430001  RH  074%=      5-min Rain = 0
KMC5 180941Z 25011KT 04/00 A2995 RMK A01 T00430001  RH  074%=      5-min Rain = 0
KMC5 180942Z 25011KT 04/00 A2995 RMK A01 T00430001  RH  074%=      5-min Rain = 0
KMC5 180943Z 25011KT 04/00 A2995 RMK A01 T00430001  RH  074%=      5-min Rain = 0
KMC5 180944Z 25012KT 04/00 A2995 RMK A01 T00430001  RH  074%=      5-min Rain = 0
KMC5 180945Z 25011KT 04/00 A2995 RMK A01 T00440001  RH  074%=      5-min Rain = 0
KMC5 180946Z 26011KT 04/00 A2995 RMK A01 T00440002  RH  074%=      5-min Rain = 0
KMC5 180947Z 26011KT 05/00 A2995 RMK A01 T00450001  RH  074%=      5-min Rain = 0
KMC5 180948Z 26011KT 05/00 A2995 RMK A01 T00450001  RH  073%=      5-min Rain = 0
KMC5 180949Z 26011KT 04/00 A2995 RMK A01 T00440001  RH  074%=      5-min Rain = 0
KMC5 180950Z 26011KT 04/00 A2995 RMK A01 T00440001  RH  074%=      5-min Rain = 0
KMC5 180951Z 26011KT 04/00 A2995 RMK A01 T00440001  RH  074%=      5-min Rain = 0
KMC5 180952Z 26011KT 04/00 A2995 RMK A01 T00440001  RH  074%=      5-min Rain = 0
KMC5 180953Z 26011KT 04/00 A2996 RMK A01 T00440001  RH  074%=      5-min Rain = 0
KMC5 180954Z 26012KT 05/00 A2996 RMK A01 T00450002  RH  073%=      5-min Rain = 0
KMC5 180955Z 26011KT 05/00 A2996 RMK A01 T00460002  RH  073%=      5-min Rain = 0
KMC5 180956Z 26012KT 05/00 A2996 RMK A01 T00460002  RH  073%=      5-min Rain = 0
KMC5 180957Z 26012KT 05/00 A2996 RMK A01 T00460002  RH  073%=      5-min Rain = 0
KMC5 180958Z 26012KT 05/00 A2996 RMK A01 T00460002  RH  073%=      5-min Rain = 0
KMC5 180959Z 26012KT 05/00 A2996 RMK A01 T00460002  RH  073%=      5-min Rain = 0
KMC5 181000Z 26011KT 05/00 A2996 RMK A01 T00460002  RH  073%=      5-min Rain = 0
KMC5 181001Z 26012KT 05/00 A2996 RMK A01 T00460002  RH  073%=      5-min Rain = 0
KMC5 181002Z 26012KT 05/00 A2996 RMK A01 T00450001  RH  073%=      5-min Rain = 0
KMC5 181003Z 26012KT 05/00 A2996 RMK A01 T00450001  RH  073%=      5-min Rain = 0
KMC5 181004Z 26012KT 05/00 A2996 RMK A01 T00450001  RH  073%=      5-min Rain = 0
KMC5 181005Z 26012KT 05/00 A2996 RMK A01 T00450001  RH  073%=      5-min Rain = 0
KMC5 181006Z 26013KT 05/00 A2996 RMK A01 T00450001  RH  073%=      5-min Rain = 0
KMC5 181007Z 26013KT 05/00 A2996 RMK A01 T00450001  RH  073%=      5-min Rain = 0
KMC5 181008Z 26013KT 05/00 A2996 RMK A01 T00450002  RH  073%=      5-min Rain = 0
KMC5 181009Z 26012KT 05/00 A2996 RMK A01 T00450001  RH  073%=      5-min Rain = 0
KMC5 181010Z 26013KT 04/00 A2995 RMK A01 T00440001  RH  074%=      5-min Rain = 0
KMC5 181011Z 26013KT 04/00 A2995 RMK A01 T00440001  RH  074%=      5-min Rain = 0
KMC5 181012Z 26013KT 04/00 A2995 RMK A01 T00440001  RH  074%=      5-min Rain = 0
KMC5 181013Z 26013KT 04/00 A2995 RMK A01 T00440001  RH  074%=      5-min Rain = 0
KMC5 181014Z 26013KT 04/00 A2995 RMK A01 T00440001  RH  074%=      5-min Rain = 0
KMC5 181015Z 26013KT 04/00 A2995 RMK A01 T00440001  RH  074%=      5-min Rain = 0
KMC5 181016Z 26012KT 04/00 A2995 RMK A01 T00430001  RH  074%=      5-min Rain = 0
KMC5 181017Z 26013KT 04/00 A2995 RMK A01 T00430001  RH  074%=      5-min Rain = 0
KMC5 181018Z 26013KT 04/00 A2995 RMK A01 T00430001  RH  074%=      5-min Rain = 0
KMC5 181019Z 26012KT 04/00 A2995 RMK A01 T00420001  RH  074%=      5-min Rain = 0
KMC5 181020Z 26013KT 04/00 A2995 RMK A01 T00420001  RH  074%=      5-min Rain = 0
KMC5 181021Z 26013KT 04/00 A2996 RMK A01 T00430001  RH  074%=      5-min Rain = 0
KMC5 181022Z 26012KT 04/00 A2996 RMK A01 T00430001  RH  074%=      5-min Rain = 0
KMC5 181023Z 26012KT 04/00 A2996 RMK A01 T00430001  RH  074%=      5-min Rain = 0
KMC5 181024Z 26012KT 04/00 A2996 RMK A01 T00430002  RH  074%=      5-min Rain = 0
KMC5 181025Z 26013KT 04/00 A2996 RMK A01 T00430002  RH  075%=      5-min Rain = 0
KMC5 181026Z 26012KT 04/00 A2996 RMK A01 T00430002  RH  075%=      5-min Rain = 0
KMC5 181027Z 26013KT 04/00 A2996 RMK A01 T00430002  RH  075%=      5-min Rain = 0
KMC5 181028Z 26013KT 04/00 A2996 RMK A01 T00440003  RH  075%=      5-min Rain = 0
KMC5 181029Z 26013KT 04/00 A2996 RMK A01 T00440003  RH  075%=      5-min Rain = 0
KMC5 181030Z 26014KT 05/00 A2996 RMK A01 T00450003  RH  074%=      5-min Rain = 0
KMC5 181031Z 27014KT 05/00 A2996 RMK A01 T00460004  RH  074%=      5-min Rain = 0
KMC5 181032Z 26013KT 05/00 A2996 RMK A01 T00460004  RH  074%=      5-min Rain = 0
KMC5 181033Z 26013KT 05/00 A2996 RMK A01 T00460004  RH  074%=      5-min Rain = 0
KMC5 181034Z 26013KT 05/00 A2996 RMK A01 T00460004  RH  074%=      5-min Rain = 0
KMC5 181035Z 26013KT 05/00 A2996 RMK A01 T00460004  RH  074%=      5-min Rain = 0
KMC5 181036Z 26013KT 05/01 A2996 RMK A01 T00460005  RH  075%=      5-min Rain = 0
KMC5 181037Z 26013KT 05/01 A2995 RMK A01 T00460005  RH  075%=      5-min Rain = 0
KMC5 181038Z 26013KT 05/01 A2995 RMK A01 T00460005  RH  074%=      5-min Rain = 0
KMC5 181039Z 26014KT 05/01 A2995 RMK A01 T00470005  RH  074%=      5-min Rain = 0
KMC5 181040Z 26013KT 05/01 A2995 RMK A01 T00470005  RH  074%=      5-min Rain = 0
KMC5 181041Z 26013KT 05/01 A2996 RMK A01 T00480006  RH  074%=      5-min Rain = 0
KMC5 181042Z 26014KT 05/01 A2996 RMK A01 T00480006  RH  074%=      5-min Rain = 0
KMC5 181043Z 26013KT 05/01 A2996 RMK A01 T00500006  RH  074%=      5-min Rain = 0
KMC5 181044Z 26014KT 05/01 A2996 RMK A01 T00510007  RH  073%=      5-min Rain = 0
KMC5 181045Z 26014KT 05/01 A2995 RMK A01 T00520007  RH  073%=      5-min Rain = 0
KMC5 181046Z 26014KT 05/01 A2995 RMK A01 T00520007  RH  073%=      5-min Rain = 0
KMC5 181047Z 26014KT 05/01 A2995 RMK A01 T00520007  RH  072%=      5-min Rain = 0
KMC5 181048Z 26013KT 05/01 A2995 RMK A01 T00530007  RH  072%=      5-min Rain = 0
KMC5 181049Z 26013KT 05/01 A2995 RMK A01 T00530007  RH  072%=      5-min Rain = 0
KMC5 181050Z 26013KT 05/01 A2995 RMK A01 T00520007  RH  072%=      5-min Rain = 0
KMC5 181051Z 26013KT 05/01 A2995 RMK A01 T00520007  RH  073%=      5-min Rain = 0
KMC5 181052Z 26014KT 05/01 A2995 RMK A01 T00510007  RH  073%=      5-min Rain = 0
KMC5 181053Z 26014KT 05/01 A2995 RMK A01 T00520007  RH  073%=      5-min Rain = 0
KMC5 181054Z 26014KT 05/01 A2995 RMK A01 T00520007  RH  072%=      5-min Rain = 0
KMC5 181055Z 26014KT 05/01 A2995 RMK A01 T00530007  RH  072%=      5-min Rain = 0
KMC5 181056Z 26014KT 05/01 A2995 RMK A01 T00540007  RH  072%=      5-min Rain = 0
KMC5 181057Z 26014KT 05/01 A2995 RMK A01 T00540007  RH  072%=      5-min Rain = 0
KMC5 181058Z 27013KT 05/01 A2995 RMK A01 T00540007  RH  072%=      5-min Rain = 0
KMC5 181059Z 27013KT 05/01 A2995 RMK A01 T00520006  RH  072%=      5-min Rain = 0
KMC5 181100Z 27013KT 05/01 A2995 RMK A01 T00510005  RH  072%=      5-min Rain = 0
KMC5 181101Z 26014KT 05/01 A2995 RMK A01 T00500005  RH  073%=      5-min Rain = 0
KMC5 181102Z 26014KT 05/01 A2995 RMK A01 T00490005  RH  073%=      5-min Rain = 0
KMC5 181103Z 27013KT 05/01 A2995 RMK A01 T00480005  RH  073%=      5-min Rain = 0
KMC5 181104Z 27013KT 05/01 A2995 RMK A01 T00480005  RH  073%=      5-min Rain = 0
KMC5 181105Z 27013KT 05/00 A2995 RMK A01 T00470004  RH  074%=      5-min Rain = 0
KMC5 181106Z 27013KT 05/00 A2995 RMK A01 T00460004  RH  074%=      5-min Rain = 0
KMC5 181107Z 27013KT 05/00 A2995 RMK A01 T00460004  RH  074%=      5-min Rain = 0
KMC5 181108Z 27013KT 05/00 A2995 RMK A01 T00460004  RH  074%=      5-min Rain = 0
KMC5 181109Z 27013KT 05/00 A2995 RMK A01 T00460004  RH  074%=      5-min Rain = 0
KMC5 181110Z 27013KT 05/00 A2995 RMK A01 T00460004  RH  074%=      5-min Rain = 0
KMC5 181111Z 27013KT 05/00 A2995 RMK A01 T00460004  RH  074%=      5-min Rain = 0
KMC5 181112Z 27014KT 05/00 A2995 RMK A01 T00460004  RH  074%=      5-min Rain = 0
KMC5 181113Z 27014KT 05/00 A2995 RMK A01 T00460004  RH  074%=      5-min Rain = 0
KMC5 181114Z 27013KT 05/00 A2995 RMK A01 T00460004  RH  074%=      5-min Rain = 0
KMC5 181115Z 27014KT 05/00 A2994 RMK A01 T00460004  RH  074%=      5-min Rain = 0
KMC5 181116Z 26013KT 05/00 A2994 RMK A01 T00460004  RH  074%=      5-min Rain = 0
KMC5 181117Z 26014KT 05/00 A2994 RMK A01 T00460004  RH  074%=      5-min Rain = 0
KMC5 181118Z 26014KT 05/00 A2994 RMK A01 T00460004  RH  074%=      5-min Rain = 0
KMC5 181119Z 27015KT 05/00 A2994 RMK A01 T00460004  RH  074%=      5-min Rain = 0
KMC5 181120Z 26014KT 05/00 A2994 RMK A01 T00470004  RH  074%=      5-min Rain = 0
KMC5 181121Z 27014KT 05/00 A2994 RMK A01 T00470004  RH  074%=      5-min Rain = 0
KMC5 181122Z 26014KT 05/01 A2994 RMK A01 T00490005  RH  073%=      5-min Rain = 0
KMC5 181123Z 27015KT 05/00 A2994 RMK A01 T00490004  RH  073%=      5-min Rain = 0
KMC5 181124Z 27015KT 05/00 A2994 RMK A01 T00490004  RH  073%=      5-min Rain = 0
KMC5 181125Z 26014KT 05/00 A2994 RMK A01 T00500004  RH  072%=      5-min Rain = 0
KMC5 181126Z 26014KT 05/01 A2994 RMK A01 T00500005  RH  072%=      5-min Rain = 0
KMC5 181127Z 26015KT 05/00 A2994 RMK A01 T00500004  RH  072%=      5-min Rain = 0
KMC5 181128Z 26015KT 05/00 A2994 RMK A01 T00500004  RH  072%=      5-min Rain = 0
KMC5 181129Z 26014KT 05/00 A2994 RMK A01 T00500004  RH  072%=      5-min Rain = 0
KMC5 181130Z 26014KT 05/00 A2994 RMK A01 T00480003  RH  072%=      5-min Rain = 0
KMC5 181131Z 26013KT 05/00 A2994 RMK A01 T00470003  RH  073%=      5-min Rain = 0
KMC5 181132Z 26014KT 05/00 A2994 RMK A01 T00470002  RH  073%=      5-min Rain = 0
KMC5 181133Z 26013KT 05/00 A2994 RMK A01 T00450002  RH  074%=      5-min Rain = 0
KMC5 181134Z 26013KT 04/00 A2994 RMK A01 T00440002  RH  074%=      5-min Rain = 0
KMC5 181135Z 26013KT 04/00 A2994 RMK A01 T00430002  RH  074%=      5-min Rain = 0
KMC5 181136Z 26013KT 04/00 A2994 RMK A01 T00420002  RH  075%=      5-min Rain = 0
KMC5 181137Z 26013KT 04/00 A2994 RMK A01 T00410002  RH  075%=      5-min Rain = 0
KMC5 181138Z 26013KT 04/00 A2994 RMK A01 T00410002  RH  075%=      5-min Rain = 0
KMC5 181139Z 26012KT 04/00 A2994 RMK A01 T00410001  RH  076%=      5-min Rain = 0
KMC5 181140Z 26013KT 04/00 A2993 RMK A01 T00400001  RH  076%=      5-min Rain = 0
KMC5 181141Z 26013KT 04/00 A2993 RMK A01 T00390001  RH  076%=      5-min Rain = 0
KMC5 181142Z 26012KT 04/00 A2993 RMK A01 T00390001  RH  076%=      5-min Rain = 0
KMC5 181143Z 26013KT 04/00 A2993 RMK A01 T00380001  RH  077%=      5-min Rain = 0
KMC5 181144Z 26013KT 04/00 A2993 RMK A01 T00380001  RH  077%=      5-min Rain = 0
KMC5 181145Z 26012KT 04/00 A2993 RMK A01 T00380001  RH  077%=      5-min Rain = 0
KMC5 181146Z 26013KT 04/00 A2993 RMK A01 T00380001  RH  077%=      5-min Rain = 0
KMC5 181147Z 26011KT 04/00 A2993 RMK A01 T00370001  RH  077%=      5-min Rain = 0
KMC5 181148Z 26011KT 04/00 A2993 RMK A01 T00380002  RH  077%=      5-min Rain = 0
KMC5 181149Z 26011KT 04/00 A2993 RMK A01 T00380001  RH  077%=      5-min Rain = 0
KMC5 181150Z 26011KT 04/00 A2993 RMK A01 T00370001  RH  077%=      5-min Rain = 0
KMC5 181151Z 26011KT 04/00 A2993 RMK A01 T00360001  RH  078%=      5-min Rain = 0
KMC5 181152Z 26011KT 04/00 A2993 RMK A01 T00370001  RH  078%=      5-min Rain = 0
KMC5 181153Z 26011KT 04/00 A2994 RMK A01 T00370001  RH  078%=      5-min Rain = 0
KMC5 181154Z 26011KT 04/00 A2994 RMK A01 T00370001  RH  077%=      5-min Rain = 0
KMC5 181155Z 26011KT 04/00 A2994 RMK A01 T00370001  RH  077%=      5-min Rain = 0
KMC5 181156Z 26011KT 04/00 A2994 RMK A01 T00380002  RH  077%=      5-min Rain = 0
KMC5 181157Z 26011KT 04/00 A2994 RMK A01 T00380002  RH  077%=      5-min Rain = 0
KMC5 181158Z 27011KT 04/00 A2994 RMK A01 T00390002  RH  077%=      5-min Rain = 0
KMC5 181159Z 26011KT 04/00 A2994 RMK A01 T00390002  RH  077%=      5-min Rain = 0
KMC5 181200Z 26011KT 04/00 A2994 RMK A01 T00400003  RH  076%=      5-min Rain = 0
KMC5 181201Z 27012KT 04/00 A2994 RMK A01 T00420003  RH  076%=      5-min Rain = 0
KMC5 181202Z 26013KT 04/00 A2994 RMK A01 T00430004  RH  075%=      5-min Rain = 0
KMC5 181203Z 26012KT 05/00 A2994 RMK A01 T00460004  RH  074%=      5-min Rain = 0
KMC5 181204Z 26012KT 05/00 A2993 RMK A01 T00470004  RH  074%=      5-min Rain = 0
KMC5 181205Z 26012KT 05/00 A2993 RMK A01 T00480004  RH  073%=      5-min Rain = 0
KMC5 181206Z 26013KT 05/00 A2993 RMK A01 T00490004  RH  073%=      5-min Rain = 0
KMC5 181207Z 27013KT 05/00 A2993 RMK A01 T00490004  RH  072%=      5-min Rain = 0
KMC5 181208Z 26013KT 05/00 A2993 RMK A01 T00500004  RH  072%=      5-min Rain = 0
KMC5 181209Z 26013KT 05/00 A2993 RMK A01 T00500004  RH  072%=      5-min Rain = 0
KMC5 181210Z 26015KT 05/00 A2993 RMK A01 T00510004  RH  072%=      5-min Rain = 0
KMC5 181211Z 26013KT 05/01 A2993 RMK A01 T00520005  RH  071%=      5-min Rain = 0
KMC5 181212Z 26013KT 05/00 A2993 RMK A01 T00530004  RH  071%=      5-min Rain = 0
KMC5 181213Z 26013KT 05/01 A2993 RMK A01 T00530005  RH  071%=      5-min Rain = 0
KMC5 181214Z 26012KT 05/00 A2993 RMK A01 T00530004  RH  071%=      5-min Rain = 0
KMC5 181215Z 26013KT 05/00 A2993 RMK A01 T00530004  RH  071%=      5-min Rain = 0
KMC5 181216Z 26014KT 05/00 A2993 RMK A01 T00520004  RH  071%=      5-min Rain = 0
KMC5 181217Z 26013KT 05/00 A2993 RMK A01 T00520004  RH  071%=      5-min Rain = 0
KMC5 181218Z 26014KT 05/00 A2993 RMK A01 T00520004  RH  071%=      5-min Rain = 0
KMC5 181219Z 26014KT 05/00 A2993 RMK A01 T00520004  RH  071%=      5-min Rain = 0
KMC5 181220Z 27014KT 05/00 A2993 RMK A01 T00520004  RH  071%=      5-min Rain = 0
KMC5 181221Z 26014KT 05/00 A2993 RMK A01 T00520004  RH  071%=      5-min Rain = 0
KMC5 181222Z 26014KT 05/00 A2993 RMK A01 T00520004  RH  071%=      5-min Rain = 0
KMC5 181223Z 26014KT 05/00 A2993 RMK A01 T00520004  RH  071%=      5-min Rain = 0
KMC5 181224Z 27014KT 05/00 A2993 RMK A01 T00530004  RH  071%=      5-min Rain = 0
KMC5 181225Z 26013KT 05/00 A2993 RMK A01 T00530004  RH  071%=      5-min Rain = 0
KMC5 181226Z 26013KT 05/00 A2993 RMK A01 T00530004  RH  071%=      5-min Rain = 0
KMC5 181227Z 26013KT 05/00 A2993 RMK A01 T00530004  RH  071%=      5-min Rain = 0
KMC5 181228Z 26012KT 05/00 A2993 RMK A01 T00530004  RH  071%=      5-min Rain = 0
KMC5 181229Z 26012KT 05/00 A2993 RMK A01 T00520003  RH  071%=      5-min Rain = 0
KMC5 181230Z 26012KT 05/00 A2993 RMK A01 T00490001  RH  071%=      5-min Rain = 0
KMC5 181231Z 26012KT 05/00 A2993 RMK A01 T004500-0  RH  073%=      5-min Rain = 0
KMC5 181232Z 26013KT 04/M00 A2993 RMK A01 T00421001  RH  074%=      5-min Rain = 0
KMC5 181233Z 26012KT 04/00 A2993 RMK A01 T004100-0  RH  075%=      5-min Rain = 0
KMC5 181234Z 26013KT 04/00 A2993 RMK A01 T004100-0  RH  075%=      5-min Rain = 0
KMC5 181235Z 26013KT 04/M00 A2993 RMK A01 T00391001  RH  075%=      5-min Rain = 0
KMC5 181236Z 26013KT 04/M00 A2994 RMK A01 T00371001  RH  076%=      5-min Rain = 0
KMC5 181237Z 26013KT 04/M00 A2994 RMK A01 T00371001  RH  076%=      5-min Rain = 0
KMC5 181238Z 26013KT 04/00 A2994 RMK A01 T003700-0  RH  076%=      5-min Rain = 0
KMC5 181239Z 26013KT 04/00 A2994 RMK A01 T00380000  RH  076%=      5-min Rain = 0
KMC5 181240Z 26013KT 04/00 A2994 RMK A01 T00390001  RH  076%=      5-min Rain = 0
KMC5 181241Z 26013KT 04/00 A2994 RMK A01 T00400001  RH  076%=      5-min Rain = 0
KMC5 181242Z 26013KT 04/00 A2994 RMK A01 T00410002  RH  075%=      5-min Rain = 0
KMC5 181243Z 26013KT 04/00 A2994 RMK A01 T00430002  RH  075%=      5-min Rain = 0
KMC5 181244Z 27013KT 04/00 A2994 RMK A01 T00440003  RH  074%=      5-min Rain = 0
KMC5 181245Z 27013KT 05/00 A2994 RMK A01 T00460003  RH  074%=      5-min Rain = 0
KMC5 181246Z 27014KT 05/00 A2994 RMK A01 T00470004  RH  073%=      5-min Rain = 0
KMC5 181247Z 27014KT 05/00 A2994 RMK A01 T00490004  RH  073%=      5-min Rain = 0
KMC5 181248Z 27014KT 05/01 A2994 RMK A01 T00510005  RH  072%=      5-min Rain = 0
KMC5 181249Z 27015KT 05/01 A2994 RMK A01 T00530005  RH  071%=      5-min Rain = 0
KMC5 181250Z 27015KT 05/01 A2994 RMK A01 T00540005  RH  071%=      5-min Rain = 0
KMC5 181251Z 27015KT 06/01 A2994 RMK A01 T00550005  RH  070%=      5-min Rain = 0
KMC5 181252Z 27015KT 06/01 A2994 RMK A01 T00550005  RH  070%=      5-min Rain = 0
KMC5 181253Z 27016KT 06/01 A2994 RMK A01 T00550005  RH  070%=      5-min Rain = 0
KMC5 181254Z 27015KT 05/01 A2994 RMK A01 T00540005  RH  070%=      5-min Rain = 0
KMC5 181255Z 26015KT 05/01 A2994 RMK A01 T00540005  RH  070%=      5-min Rain = 0
KMC5 181256Z 26015KT 05/01 A2994 RMK A01 T00540005  RH  071%=      5-min Rain = 0
KMC5 181257Z 26015KT 05/01 A2994 RMK A01 T00530005  RH  071%=      5-min Rain = 0
KMC5 181258Z 27015KT 05/01 A2994 RMK A01 T00530005  RH  071%=      5-min Rain = 0
KMC5 181259Z 27015KT 05/01 A2994 RMK A01 T00530005  RH  071%=      5-min Rain = 0
KMC5 181300Z 26015KT 05/01 A2994 RMK A01 T00530005  RH  071%=      5-min Rain = 0
KMC5 181301Z 27015KT 05/01 A2994 RMK A01 T00520005  RH  072%=      5-min Rain = 0
KMC5 181302Z 26014KT 05/01 A2995 RMK A01 T00530005  RH  071%=      5-min Rain = 0
KMC5 181303Z 26014KT 05/01 A2995 RMK A01 T00530005  RH  071%=      5-min Rain = 0
KMC5 181304Z 26013KT 05/01 A2995 RMK A01 T00530005  RH  071%=      5-min Rain = 0
KMC5 181305Z 26013KT 05/00 A2995 RMK A01 T00520004  RH  072%=      5-min Rain = 0
KMC5 181306Z 26013KT 05/00 A2995 RMK A01 T00500004  RH  072%=      5-min Rain = 0
KMC5 181307Z 26014KT 05/00 A2995 RMK A01 T00490004  RH  073%=      5-min Rain = 0
KMC5 181308Z 26014KT 05/00 A2995 RMK A01 T00480004  RH  073%=      5-min Rain = 0
KMC5 181309Z 26014KT 05/01 A2995 RMK A01 T00490005  RH  073%=      5-min Rain = 0
KMC5 181310Z 26014KT 05/00 A2995 RMK A01 T00490004  RH  073%=      5-min Rain = 0
KMC5 181311Z 26014KT 05/01 A2995 RMK A01 T00490005  RH  073%=      5-min Rain = 0
KMC5 181312Z 26014KT 05/01 A2995 RMK A01 T00490005  RH  073%=      5-min Rain = 0
KMC5 181313Z 26014KT 05/01 A2995 RMK A01 T00490005  RH  073%=      5-min Rain = 0
KMC5 181314Z 26013KT 05/01 A2994 RMK A01 T00500005  RH  073%=      5-min Rain = 0
KMC5 181315Z 26014KT 05/01 A2994 RMK A01 T00500005  RH  073%=      5-min Rain = 0
KMC5 181316Z 26013KT 05/01 A2994 RMK A01 T00490005  RH  073%=      5-min Rain = 0
KMC5 181317Z 26014KT 05/00 A2994 RMK A01 T00470004  RH  074%=      5-min Rain = 0
KMC5 181318Z 26014KT 05/00 A2994 RMK A01 T00460004  RH  074%=      5-min Rain = 0
KMC5 181319Z 26014KT 05/00 A2994 RMK A01 T00450004  RH  074%=      5-min Rain = 0
KMC5 181320Z 26013KT 05/00 A2994 RMK A01 T00450004  RH  075%=      5-min Rain = 0
KMC5 181321Z 26013KT 04/00 A2995 RMK A01 T00440004  RH  075%=      5-min Rain = 0
KMC5 181322Z 26013KT 04/00 A2995 RMK A01 T00440004  RH  075%=      5-min Rain = 0
KMC5 181323Z 26013KT 04/00 A2995 RMK A01 T00420003  RH  075%=      5-min Rain = 0
KMC5 181324Z 26013KT 04/00 A2995 RMK A01 T00410003  RH  076%=      5-min Rain = 0
KMC5 181325Z 26013KT 04/00 A2995 RMK A01 T00400003  RH  077%=      5-min Rain = 0
KMC5 181326Z 27014KT 04/00 A2995 RMK A01 T00410004  RH  077%=      5-min Rain = 0
KMC5 181327Z 27015KT 04/01 A2995 RMK A01 T00430005  RH  076%=      5-min Rain = 0
KMC5 181328Z 27014KT 05/01 A2995 RMK A01 T00460006  RH  075%=      5-min Rain = 0
KMC5 181329Z 27014KT 05/01 A2995 RMK A01 T00480006  RH  074%=      5-min Rain = 0
KMC5 181330Z 27014KT 05/01 A2995 RMK A01 T00490006  RH  074%=      5-min Rain = 0
KMC5 181331Z 27015KT 05/01 A2994 RMK A01 T00490006  RH  074%=      5-min Rain = 0
KMC5 181332Z 27015KT 05/01 A2994 RMK A01 T00490006  RH  073%=      5-min Rain = 0
KMC5 181333Z 27014KT 05/01 A2994 RMK A01 T00490006  RH  073%=      5-min Rain = 0
KMC5 181334Z 26014KT 05/01 A2994 RMK A01 T00500006  RH  073%=      5-min Rain = 0
KMC5 181335Z 27015KT 05/01 A2994 RMK A01 T00500006  RH  073%=      5-min Rain = 0
KMC5 181336Z 26015KT 05/01 A2994 RMK A01 T00510006  RH  073%=      5-min Rain = 0
KMC5 181337Z 26015KT 05/01 A2994 RMK A01 T00520006  RH  072%=      5-min Rain = 0
KMC5 181338Z 26015KT 05/01 A2994 RMK A01 T00530007  RH  072%=      5-min Rain = 0
KMC5 181339Z 27014KT 05/01 A2994 RMK A01 T00540007  RH  072%=      5-min Rain = 0
KMC5 181340Z 26014KT 05/01 A2994 RMK A01 T00540006  RH  071%=      5-min Rain = 0
KMC5 181341Z 26014KT 05/01 A2994 RMK A01 T00540006  RH  071%=      5-min Rain = 0
KMC5 181342Z 26014KT 05/01 A2994 RMK A01 T00540006  RH  071%=      5-min Rain = 0
KMC5 181343Z 26015KT 06/01 A2994 RMK A01 T00550006  RH  071%=      5-min Rain = 0
KMC5 181344Z 26015KT 06/01 A2994 RMK A01 T00550006  RH  071%=      5-min Rain = 0
KMC5 181345Z 26016KT 06/01 A2994 RMK A01 T00560006  RH  070%=      5-min Rain = 0
KMC5 181346Z 26015KT 06/01 A2994 RMK A01 T00570007  RH  070%=      5-min Rain = 0
KMC5 181347Z 26014KT 06/01 A2994 RMK A01 T00580007  RH  069%=      5-min Rain = 0
KMC5 181348Z 26014KT 06/01 A2994 RMK A01 T00580007  RH  069%=      5-min Rain = 0
KMC5 181349Z 26013KT 06/01 A2994 RMK A01 T00580007  RH  069%=      5-min Rain = 0
KMC5 181350Z 26013KT 06/01 A2994 RMK A01 T00580007  RH  069%=      5-min Rain = 0
KMC5 181351Z 26012KT 06/01 A2994 RMK A01 T00580007  RH  070%=      5-min Rain = 0
KMC5 181352Z 26012KT 06/01 A2994 RMK A01 T00580007  RH  070%=      5-min Rain = 0
KMC5 181353Z 26012KT 06/01 A2994 RMK A01 T00570007  RH  070%=      5-min Rain = 0
KMC5 181354Z 26012KT 06/01 A2994 RMK A01 T00560007  RH  070%=      5-min Rain = 0
KMC5 181355Z 26012KT 06/01 A2994 RMK A01 T00560007  RH  070%=      5-min Rain = 0
KMC5 181356Z 25012KT 06/01 A2994 RMK A01 T00570007  RH  071%=      5-min Rain = 0
KMC5 181357Z 26012KT 06/01 A2994 RMK A01 T00570008  RH  071%=      5-min Rain = 0
KMC5 181358Z 26011KT 06/01 A2994 RMK A01 T00570007  RH  071%=      5-min Rain = 0
KMC5 181359Z 26012KT 06/01 A2994 RMK A01 T00570008  RH  071%=      5-min Rain = 0
KMC5 181400Z 26012KT 06/01 A2994 RMK A01 T00580008  RH  070%=      5-min Rain = 0
KMC5 181401Z 26012KT 06/01 A2994 RMK A01 T00590008  RH  070%=      5-min Rain = 0
KMC5 181402Z 27012KT 06/01 A2994 RMK A01 T00600008  RH  069%=      5-min Rain = 0
KMC5 181403Z 26011KT 06/01 A2994 RMK A01 T00600008  RH  069%=      5-min Rain = 0
KMC5 181404Z 27011KT 06/01 A2994 RMK A01 T00610008  RH  069%=      5-min Rain = 0
KMC5 181405Z 27011KT 06/01 A2994 RMK A01 T00610008  RH  069%=      5-min Rain = 0
KMC5 181406Z 27011KT 06/01 A2994 RMK A01 T00610009  RH  069%=      5-min Rain = 0
KMC5 181407Z 27013KT 06/01 A2994 RMK A01 T00620009  RH  069%=      5-min Rain = 0
KMC5 181408Z 27013KT 06/01 A2994 RMK A01 T00630009  RH  068%=      5-min Rain = 0
KMC5 181409Z 27014KT 06/01 A2994 RMK A01 T00640009  RH  068%=      5-min Rain = 0
KMC5 181410Z 27014KT 07/01 A2994 RMK A01 T00650009  RH  067%=      5-min Rain = 0
KMC5 181411Z 27014KT 07/01 A2994 RMK A01 T00660008  RH  067%=      5-min Rain = 0
KMC5 181412Z 27015KT 07/01 A2994 RMK A01 T00670009  RH  067%=      5-min Rain = 0
KMC5 181413Z 27016KT 07/01 A2994 RMK A01 T00680009  RH  066%=      5-min Rain = 0
KMC5 181414Z 27014KT 07/01 A2994 RMK A01 T00690009  RH  066%=      5-min Rain = 0
KMC5 181415Z 27015KT 07/01 A2994 RMK A01 T00700009  RH  065%=      5-min Rain = 0
KMC5 181416Z 28015KT 07/01 A2994 RMK A01 T00700009  RH  065%=      5-min Rain = 0
KMC5 181417Z 27015KT 07/01 A2994 RMK A01 T00710009  RH  065%=      5-min Rain = 0
KMC5 181418Z 27015KT 07/01 A2994 RMK A01 T00710009  RH  065%=      5-min Rain = 0
KMC5 181419Z 27014KT 07/01 A2994 RMK A01 T00710009  RH  065%=      5-min Rain = 0
KMC5 181420Z 27014KT 07/01 A2994 RMK A01 T00710009  RH  065%=      5-min Rain = 0
KMC5 181421Z 27014KT 07/01 A2994 RMK A01 T00710009  RH  065%=      5-min Rain = 0
KMC5 181422Z 27014KT 07/01 A2994 RMK A01 T00710009  RH  065%=      5-min Rain = 0
KMC5 181423Z 27014KT 07/01 A2994 RMK A01 T00710009  RH  065%=      5-min Rain = 0
KMC5 181424Z 27015KT 07/01 A2994 RMK A01 T00710009  RH  065%=      5-min Rain = 0
KMC5 181425Z 27015KT 07/01 A2994 RMK A01 T00720009  RH  064%=      5-min Rain = 0
KMC5 181426Z 27015KT 07/01 A2994 RMK A01 T00730009  RH  064%=      5-min Rain = 0
KMC5 181427Z 27016KT 07/01 A2994 RMK A01 T00740009  RH  063%=      5-min Rain = 0
KMC5 181428Z 27015KT 08/01 A2994 RMK A01 T00750009  RH  063%=      5-min Rain = 0
KMC5 181429Z 27016KT 08/01 A2994 RMK A01 T00760009  RH  063%=      5-min Rain = 0
KMC5 181430Z 27015KT 08/01 A2994 RMK A01 T00760009  RH  062%=      5-min Rain = 0
KMC5 181431Z 27014KT 08/01 A2994 RMK A01 T00770010  RH  062%=      5-min Rain = 0
KMC5 181432Z 27015KT 08/01 A2994 RMK A01 T00780010  RH  062%=      5-min Rain = 0
KMC5 181433Z 27015KT 08/01 A2994 RMK A01 T00790010  RH  062%=      5-min Rain = 0
KMC5 181434Z 27015KT 08/01 A2994 RMK A01 T00800010  RH  061%=      5-min Rain = 0
KMC5 181435Z 27014KT 08/01 A2994 RMK A01 T00820010  RH  061%=      5-min Rain = 0
KMC5 181436Z 27015KT 08/01 A2994 RMK A01 T00830010  RH  060%=      5-min Rain = 0
KMC5 181437Z 27014KT 08/01 A2994 RMK A01 T00840009  RH  059%=      5-min Rain = 0
KMC5 181438Z 27015KT 09/01 A2994 RMK A01 T00850009  RH  059%=      5-min Rain = 0
KMC5 181439Z 27014KT 09/01 A2995 RMK A01 T00850009  RH  059%=      5-min Rain = 0
KMC5 181440Z 27015KT 09/01 A2995 RMK A01 T00860009  RH  059%=      5-min Rain = 0
KMC5 181441Z 27013KT 09/01 A2995 RMK A01 T00860010  RH  059%=      5-min Rain = 0
KMC5 181442Z 27014KT 09/01 A2995 RMK A01 T00880011  RH  059%=      5-min Rain = 0
KMC5 181443Z 27013KT 09/01 A2995 RMK A01 T00890011  RH  058%=      5-min Rain = 0
KMC5 181444Z 27014KT 09/01 A2995 RMK A01 T00900011  RH  058%=      5-min Rain = 0
KMC5 181445Z 27015KT 09/01 A2995 RMK A01 T00900010  RH  057%=      5-min Rain = 0
KMC5 181446Z 27013KT 09/01 A2995 RMK A01 T00900010  RH  057%=      5-min Rain = 0
KMC5 181447Z 27014KT 09/01 A2995 RMK A01 T00910011  RH  057%=      5-min Rain = 0
KMC5 181448Z 27014KT 09/01 A2995 RMK A01 T00910010  RH  057%=      5-min Rain = 0
KMC5 181449Z 27013KT 09/01 A2995 RMK A01 T00920011  RH  057%=      5-min Rain = 0
KMC5 181450Z 27013KT 09/01 A2995 RMK A01 T00930011  RH  056%=      5-min Rain = 0
KMC5 181451Z 27013KT 10/01 A2995 RMK A01 T00950011  RH  056%=      5-min Rain = 0
KMC5 181452Z 27014KT 10/01 A2995 RMK A01 T00960012  RH  056%=      5-min Rain = 0
KMC5 181453Z 27015KT 10/01 A2995 RMK A01 T00970011  RH  055%=      5-min Rain = 0
KMC5 181454Z 27014KT 10/01 A2995 RMK A01 T00980011  RH  055%=      5-min Rain = 0
KMC5 181455Z 27016KT 10/01 A2995 RMK A01 T00990011  RH  054%=      5-min Rain = 0
KMC5 181456Z 27014KT 10/01 A2995 RMK A01 T01000010  RH  054%=      5-min Rain = 0
KMC5 181457Z 27014KT 10/01 A2995 RMK A01 T01000011  RH  054%=      5-min Rain = 0
KMC5 181458Z 27014KT 10/01 A2995 RMK A01 T01010011  RH  054%=      5-min Rain = 0
KMC5 181459Z 27013KT 10/01 A2995 RMK A01 T01010012  RH  054%=      5-min Rain = 0
KMC5 181500Z 27013KT 10/01 A2995 RMK A01 T01020012  RH  054%=      5-min Rain = 0
KMC5 181501Z 27014KT 10/01 A2995 RMK A01 T01040013  RH  053%=      5-min Rain = 0
KMC5 181502Z 27013KT 10/01 A2994 RMK A01 T01040012  RH  053%=      5-min Rain = 0
KMC5 181503Z 27013KT 10/01 A2994 RMK A01 T01040013  RH  053%=      5-min Rain = 0
KMC5 181504Z 27013KT 11/01 A2994 RMK A01 T01060013  RH  053%=      5-min Rain = 0
KMC5 181505Z 27014KT 11/01 A2994 RMK A01 T01070013  RH  052%=      5-min Rain = 0
KMC5 181506Z 27012KT 11/01 A2994 RMK A01 T01070013  RH  052%=      5-min Rain = 0
KMC5 181507Z 27012KT 11/01 A2994 RMK A01 T01080014  RH  052%=      5-min Rain = 0
KMC5 181508Z 27012KT 11/01 A2994 RMK A01 T01090014  RH  052%=      5-min Rain = 0
KMC5 181509Z 27013KT 11/01 A2994 RMK A01 T01110014  RH  051%=      5-min Rain = 0
KMC5 181510Z 27014KT 11/01 A2994 RMK A01 T01110013  RH  051%=      5-min Rain = 0
KMC5 181511Z 27013KT 11/01 A2994 RMK A01 T01110013  RH  051%=      5-min Rain = 0
KMC5 181512Z 27013KT 11/01 A2995 RMK A01 T01120013  RH  051%=      5-min Rain = 0
KMC5 181513Z 27013KT 11/01 A2995 RMK A01 T01130013  RH  050%=      5-min Rain = 0
KMC5 181514Z 28013KT 11/01 A2995 RMK A01 T01130013  RH  050%=      5-min Rain = 0
KMC5 181515Z 28012KT 11/01 A2995 RMK A01 T01140014  RH  050%=      5-min Rain = 0
KMC5 181516Z 27011KT 12/02 A2995 RMK A01 T01150015  RH  050%=      5-min Rain = 0
KMC5 181517Z 27011KT 12/02 A2995 RMK A01 T01160015  RH  050%=      5-min Rain = 0
KMC5 181518Z 27011KT 12/01 A2995 RMK A01 T01160014  RH  050%=      5-min Rain = 0
KMC5 181519Z 27011KT 12/02 A2995 RMK A01 T01170015  RH  050%=      5-min Rain = 0
KMC5 181520Z 27012KT 12/02 A2995 RMK A01 T01190015  RH  049%=      5-min Rain = 0
KMC5 181521Z 27012KT 12/01 A2995 RMK A01 T01190014  RH  049%=      5-min Rain = 0
KMC5 181522Z 27012KT 12/02 A2995 RMK A01 T01190015  RH  049%=      5-min Rain = 0
KMC5 181523Z 28013KT 12/02 A2995 RMK A01 T01190015  RH  049%=      5-min Rain = 0
KMC5 181524Z 28011KT 12/02 A2995 RMK A01 T01200015  RH  049%=      5-min Rain = 0
KMC5 181525Z 27011KT 12/02 A2995 RMK A01 T01210016  RH  049%=      5-min Rain = 0
KMC5 181526Z 28013KT 12/02 A2995 RMK A01 T01220016  RH  048%=      5-min Rain = 0
KMC5 181527Z 28014KT 12/01 A2995 RMK A01 T01230014  RH  047%=      5-min Rain = 0
KMC5 181528Z 28013KT 12/01 A2995 RMK A01 T01230014  RH  047%=      5-min Rain = 0
KMC5 181529Z 27013KT 12/02 A2995 RMK A01 T01220015  RH  048%=      5-min Rain = 0
KMC5 181530Z 27011KT 12/02 A2995 RMK A01 T01230016  RH  048%=      5-min Rain = 0
KMC5 181531Z 26011KT 13/02 A2995 RMK A01 T01260017  RH  047%=      5-min Rain = 0
KMC5 181532Z 27010KT 13/02 A2995 RMK A01 T01280018  RH  047%=      5-min Rain = 0
KMC5 181533Z 26011KT 13/02 A2995 RMK A01 T01290018  RH  047%=      5-min Rain = 0
KMC5 181534Z 27012KT 13/02 A2995 RMK A01 T01290017  RH  046%=      5-min Rain = 0
KMC5 181535Z 27011KT 13/02 A2995 RMK A01 T01300018  RH  046%=      5-min Rain = 0
KMC5 181536Z 27011KT 13/02 A2995 RMK A01 T01300017  RH  046%=      5-min Rain = 0
KMC5 181537Z 27011KT 13/02 A2995 RMK A01 T01300018  RH  047%=      5-min Rain = 0
KMC5 181538Z 28013KT 13/02 A2995 RMK A01 T01300018  RH  046%=      5-min Rain = 0
KMC5 181539Z 27013KT 13/02 A2995 RMK A01 T01300017  RH  046%=      5-min Rain = 0
KMC5 181540Z 27012KT 13/02 A2995 RMK A01 T01310017  RH  046%=      5-min Rain = 0
KMC5 181541Z 27011KT 13/02 A2995 RMK A01 T01310017  RH  046%=      5-min Rain = 0
KMC5 181542Z 27012KT 13/02 A2995 RMK A01 T01330018  RH  046%=      5-min Rain = 0
KMC5 181543Z 27012KT 13/02 A2995 RMK A01 T01340017  RH  045%=      5-min Rain = 0
KMC5 181544Z 27011KT 13/02 A2995 RMK A01 T01340018  RH  045%=      5-min Rain = 0
KMC5 181545Z 27012KT 14/02 A2995 RMK A01 T01350018  RH  045%=      5-min Rain = 0
KMC5 181546Z 27011KT 14/02 A2995 RMK A01 T01360018  RH  045%=      5-min Rain = 0
KMC5 181547Z 28011KT 14/02 A2995 RMK A01 T01370019  RH  045%=      5-min Rain = 0
KMC5 181548Z 28010KT 14/02 A2995 RMK A01 T01390021  RH  045%=      5-min Rain = 0
KMC5 181549Z 27011KT 14/02 A2995 RMK A01 T01410020  RH  044%=      5-min Rain = 0
KMC5 181550Z 27012KT 14/02 A2995 RMK A01 T01400019  RH  044%=      5-min Rain = 0
KMC5 181551Z 28012KT 14/02 A2995 RMK A01 T01390018  RH  044%=      5-min Rain = 0
KMC5 181552Z 28011KT 14/02 A2995 RMK A01 T01390020  RH  044%=      5-min Rain = 0
KMC5 181553Z 27012KT 14/02 A2995 RMK A01 T01400019  RH  044%=      5-min Rain = 0
KMC5 181554Z 27011KT 14/02 A2995 RMK A01 T01390019  RH  044%=      5-min Rain = 0
KMC5 181555Z 27011KT 14/02 A2995 RMK A01 T01400021  RH  044%=      5-min Rain = 0
KMC5 181556Z 27011KT 14/02 A2995 RMK A01 T01420020  RH  044%=      5-min Rain = 0
KMC5 181557Z 27011KT 14/02 A2995 RMK A01 T01400020  RH  044%=      5-min Rain = 0
KMC5 181558Z 27011KT 14/02 A2995 RMK A01 T01400020  RH  044%=      5-min Rain = 0
KMC5 181559Z 27011KT 14/02 A2995 RMK A01 T01410021  RH  044%=      5-min Rain = 0
KMC5 181600Z 27011KT 14/02 A2995 RMK A01 T01410021  RH  044%=      5-min Rain = 0
KMC5 181601Z 27011KT 14/02 A2995 RMK A01 T01430021  RH  044%=      5-min Rain = 0
KMC5 181602Z 27010KT 14/02 A2995 RMK A01 T01430021  RH  044%=      5-min Rain = 0
KMC5 181603Z 27010KT 14/02 A2995 RMK A01 T01430022  RH  044%=      5-min Rain = 0
KMC5 181604Z 27010KT 15/02 A2995 RMK A01 T01450022  RH  043%=      5-min Rain = 0
KMC5 181605Z 27009KT 15/02 A2995 RMK A01 T01470023  RH  043%=      5-min Rain = 0
KMC5 181606Z 27010KT 15/02 A2995 RMK A01 T01480023  RH  043%=      5-min Rain = 0
KMC5 181607Z 28008KT 15/02 A2996 RMK A01 T01490023  RH  043%=      5-min Rain = 0
KMC5 181608Z 30010KT 15/02 A2996 RMK A01 T01500022  RH  042%=      5-min Rain = 0
KMC5 181609Z 30009KT 15/02 A2996 RMK A01 T01520020  RH  041%=      5-min Rain = 0
KMC5 181610Z 31010KT 15/02 A2996 RMK A01 T01540019  RH  040%=      5-min Rain = 0
KMC5 181611Z 30011KT 16/02 A2996 RMK A01 T01550019  RH  040%=      5-min Rain = 0
KMC5 181612Z 30008KT 16/02 A2996 RMK A01 T01550020  RH  040%=      5-min Rain = 0
KMC5 181613Z 30009KT 16/02 A2996 RMK A01 T01570022  RH  040%=      5-min Rain = 0
KMC5 181614Z 30009KT 16/02 A2996 RMK A01 T01570020  RH  039%=      5-min Rain = 0
KMC5 181615Z 30009KT 16/02 A2996 RMK A01 T01580020  RH  039%=      5-min Rain = 0
KMC5 181616Z 29009KT 16/02 A2996 RMK A01 T01590020  RH  039%=      5-min Rain = 0
KMC5 181617Z 30009KT 16/02 A2996 RMK A01 T01590020  RH  039%=      5-min Rain = 0
KMC5 181618Z 31010KT 16/02 A2996 RMK A01 T01580019  RH  039%=      5-min Rain = 0
KMC5 181619Z 30008KT 16/02 A2996 RMK A01 T01580020  RH  039%=      5-min Rain = 0
KMC5 181620Z 31010KT 16/02 A2996 RMK A01 T01600021  RH  039%=      5-min Rain = 0
KMC5 181621Z 31011KT 16/02 A2996 RMK A01 T01610018  RH  038%=      5-min Rain = 0
KMC5 181622Z 31010KT 16/02 A2996 RMK A01 T01600016  RH  038%=      5-min Rain = 0
KMC5 181623Z 31009KT 16/02 A2996 RMK A01 T01590018  RH  039%=      5-min Rain = 0
KMC5 181624Z 31009KT 16/02 A2996 RMK A01 T01590018  RH  039%=      5-min Rain = 0
KMC5 181625Z 31009KT 16/02 A2996 RMK A01 T01600018  RH  038%=      5-min Rain = 0
KMC5 181626Z 31008KT 16/02 A2996 RMK A01 T01620018  RH  038%=      5-min Rain = 0
KMC5 181627Z 31008KT 16/02 A2996 RMK A01 T01630020  RH  038%=      5-min Rain = 0
KMC5 181628Z 31008KT 16/02 A2996 RMK A01 T01630019  RH  038%=      5-min Rain = 0
KMC5 181629Z 31006KT 16/02 A2996 RMK A01 T01620021  RH  039%=      5-min Rain = 0
KMC5 181630Z 30007KT 16/02 A2996 RMK A01 T01630021  RH  039%=      5-min Rain = 0
KMC5 181631Z 29009KT 17/02 A2996 RMK A01 T01650022  RH  038%=      5-min Rain = 0
KMC5 181632Z 29008KT 17/02 A2996 RMK A01 T01660020  RH  037%=      5-min Rain = 0
KMC5 181633Z 30009KT 17/02 A2996 RMK A01 T01670018  RH  037%=      5-min Rain = 0
KMC5 181634Z 30009KT 17/02 A2996 RMK A01 T01690021  RH  037%=      5-min Rain = 0
KMC5 181635Z 30007KT 17/02 A2996 RMK A01 T01700020  RH  036%=      5-min Rain = 0
KMC5 181636Z 31006KT 17/02 A2996 RMK A01 T01700022  RH  037%=      5-min Rain = 0
KMC5 181637Z 31007KT 17/02 A2996 RMK A01 T01710021  RH  037%=      5-min Rain = 0
KMC5 181638Z 31006KT 17/02 A2997 RMK A01 T01710023  RH  037%=      5-min Rain = 0
KMC5 181639Z 31009KT 17/02 A2997 RMK A01 T01730021  RH  036%=      5-min Rain = 0
KMC5 181640Z 31008KT 17/02 A2997 RMK A01 T01740021  RH  036%=      5-min Rain = 0
KMC5 181641Z 32008KT 17/02 A2997 RMK A01 T01720022  RH  036%=      5-min Rain = 0
KMC5 181642Z 32008KT 17/02 A2997 RMK A01 T01720022  RH  036%=      5-min Rain = 0
KMC5 181643Z 33009KT 17/02 A2997 RMK A01 T01730021  RH  036%=      5-min Rain = 0
KMC5 181644Z 34010KT 17/02 A2997 RMK A01 T01730020  RH  036%=      5-min Rain = 0
KMC5 181645Z 34011KT 17/02 A2997 RMK A01 T01720021  RH  036%=      5-min Rain = 0
KMC5 181646Z 33011KT 17/02 A2997 RMK A01 T01720020  RH  036%=      5-min Rain = 0
KMC5 181647Z 33010KT 17/02 A2997 RMK A01 T01710021  RH  036%=      5-min Rain = 0
KMC5 181648Z 34011KT 17/02 A2997 RMK A01 T01710023  RH  037%=      5-min Rain = 0
KMC5 181649Z 34012KT 17/02 A2997 RMK A01 T01710022  RH  037%=      5-min Rain = 0
KMC5 181650Z 33011KT 17/02 A2997 RMK A01 T01680022  RH  037%=      5-min Rain = 0
KMC5 181651Z 33010KT 17/02 A2997 RMK A01 T01660024  RH  038%=      5-min Rain = 0
KMC5 181652Z 32010KT 17/03 A2997 RMK A01 T01680025  RH  038%=      5-min Rain = 0
KMC5 181653Z 33012KT 17/03 A2997 RMK A01 T01700026  RH  038%=      5-min Rain = 0
KMC5 181654Z 32009KT 17/03 A2997 RMK A01 T01690026  RH  038%=      5-min Rain = 0
KMC5 181655Z 33011KT 17/03 A2997 RMK A01 T01710027  RH  038%=      5-min Rain = 0
KMC5 181656Z 32013KT 17/02 A2997 RMK A01 T01720024  RH  037%=      5-min Rain = 0
KMC5 181657Z 32011KT 17/02 A2997 RMK A01 T01710024  RH  037%=      5-min Rain = 0
KMC5 181658Z 33012KT 17/02 A2997 RMK A01 T01710021  RH  037%=      5-min Rain = 0
KMC5 181659Z 33010KT 17/02 A2997 RMK A01 T01730023  RH  036%=      5-min Rain = 0
KMC5 181700Z 32012KT 18/02 A2996 RMK A01 T01770023  RH  036%=      5-min Rain = 0
KMC5 181701Z 32011KT 18/02 A2996 RMK A01 T01770021  RH  035%=      5-min Rain = 0
KMC5 181702Z 33010KT 18/02 A2996 RMK A01 T01760023  RH  036%=      5-min Rain = 0
KMC5 181703Z 32011KT 18/02 A2996 RMK A01 T01760024  RH  036%=      5-min Rain = 0
KMC5 181704Z 32012KT 18/02 A2996 RMK A01 T01760023  RH  036%=      5-min Rain = 0
KMC5 181705Z 32013KT 18/02 A2996 RMK A01 T01750024  RH  036%=      5-min Rain = 0
KMC5 181706Z 32011KT 17/02 A2996 RMK A01 T01720024  RH  037%=      5-min Rain = 0
KMC5 181707Z 32010KT 17/03 A2996 RMK A01 T01730025  RH  037%=      5-min Rain = 0
KMC5 181708Z 33011KT 18/02 A2996 RMK A01 T01760024  RH  036%=      5-min Rain = 0
KMC5 181709Z 32010KT 18/02 A2996 RMK A01 T01770024  RH  036%=      5-min Rain = 0
KMC5 181710Z 33011KT 18/02 A2996 RMK A01 T01770023  RH  036%=      5-min Rain = 0
KMC5 181711Z 33011KT 18/02 A2996 RMK A01 T01780019  RH  034%=      5-min Rain = 0
KMC5 181712Z 33011KT 18/02 A2996 RMK A01 T01780016  RH  034%=      5-min Rain = 0
KMC5 181713Z 33011KT 18/02 A2996 RMK A01 T01780016  RH  034%=      5-min Rain = 0
KMC5 181714Z 33012KT 18/02 A2996 RMK A01 T01770016  RH  034%=      5-min Rain = 0
KMC5 181715Z 33010KT 18/02 A2996 RMK A01 T01780015  RH  033%=      5-min Rain = 0
KMC5 181716Z 32009KT 18/02 A2996 RMK A01 T01810017  RH  033%=      5-min Rain = 0
KMC5 181717Z 32009KT 18/02 A2996 RMK A01 T01820018  RH  033%=      5-min Rain = 0
KMC5 181718Z 33008KT 18/02 A2996 RMK A01 T01840018  RH  033%=      5-min Rain = 0
KMC5 181719Z 33009KT 19/02 A2996 RMK A01 T01850019  RH  033%=      5-min Rain = 0
KMC5 181720Z 31008KT 19/02 A2996 RMK A01 T01860017  RH  032%=      5-min Rain = 0
KMC5 181721Z 32008KT 19/02 A2996 RMK A01 T01870018  RH  032%=      5-min Rain = 0
KMC5 181722Z 32007KT 19/02 A2996 RMK A01 T01900015  RH  031%=      5-min Rain = 0
KMC5 181723Z 32007KT 19/02 A2996 RMK A01 T01910021  RH  032%=      5-min Rain = 0
KMC5 181724Z 33010KT 19/02 A2996 RMK A01 T01940018  RH  031%=      5-min Rain = 0
KMC5 181725Z 32008KT 19/02 A2996 RMK A01 T01930016  RH  031%=      5-min Rain = 0
KMC5 181726Z 32008KT 19/02 A2996 RMK A01 T01910018  RH  032%=      5-min Rain = 0
KMC5 181727Z 32009KT 19/02 A2995 RMK A01 T01910015  RH  031%=      5-min Rain = 0
KMC5 181728Z 33008KT 19/02 A2995 RMK A01 T01920015  RH  031%=      5-min Rain = 0
KMC5 181729Z 33008KT 19/01 A2995 RMK A01 T01930008  RH  029%=      5-min Rain = 0
KMC5 181730Z 33008KT 19/01 A2995 RMK A01 T01940013  RH  030%=      5-min Rain = 0
KMC5 181731Z 32007KT 19/01 A2995 RMK A01 T01930013  RH  030%=      5-min Rain = 0
KMC5 181732Z 31006KT 19/01 A2995 RMK A01 T01920013  RH  030%=      5-min Rain = 0
KMC5 181733Z 31006KT 19/02 A2995 RMK A01 T01920015  RH  031%=      5-min Rain = 0
KMC5 181734Z 31005KT 19/02 A2995 RMK A01 T01930016  RH  031%=      5-min Rain = 0
KMC5 181735Z 30006KT 20/01 A2995 RMK A01 T01960013  RH  029%=      5-min Rain = 0
KMC5 181736Z 29007KT 20/01 A2994 RMK A01 T01970012  RH  029%=      5-min Rain = 0
KMC5 181737Z 30006KT 20/01 A2994 RMK A01 T01970013  RH  029%=      5-min Rain = 0
KMC5 181738Z 29005KT 20/01 A2994 RMK A01 T01970011  RH  029%=      5-min Rain = 0
KMC5 181739Z 29007KT 20/01 A2994 RMK A01 T01980011  RH  029%=      5-min Rain = 0
KMC5 181740Z 27005KT 20/01 A2994 RMK A01 T01980008  RH  028%=      5-min Rain = 0
KMC5 181741Z 28007KT 20/01 A2994 RMK A01 T01980010  RH  028%=      5-min Rain = 0
KMC5 181742Z 29007KT 20/01 A2994 RMK A01 T01980008  RH  028%=      5-min Rain = 0
KMC5 181743Z 28007KT 20/01 A2994 RMK A01 T01980008  RH  028%=      5-min Rain = 0
KMC5 181744Z 28007KT 20/00 A2994 RMK A01 T01980002  RH  027%=      5-min Rain = 0
KMC5 181745Z 27007KT 20/01 A2994 RMK A01 T01990007  RH  028%=      5-min Rain = 0
KMC5 181746Z 29007KT 20/01 A2994 RMK A01 T02010006  RH  027%=      5-min Rain = 0
KMC5 181747Z 30005KT 20/01 A2994 RMK A01 T02020011  RH  028%=      5-min Rain = 0
KMC5 181748Z 28007KT 20/01 A2994 RMK A01 T02020009  RH  027%=      5-min Rain = 0
KMC5 181749Z 28007KT 20/01 A2994 RMK A01 T02030006  RH  027%=      5-min Rain = 0
KMC5 181750Z 29006KT 20/00 A2994 RMK A01 T02040001  RH  026%=      5-min Rain = 0
KMC5 181751Z 27008KT 21/00 A2994 RMK A01 T020500-0  RH  025%=      5-min Rain = 0
KMC5 181752Z 27006KT 21/M01 A2994 RMK A01 T02071006  RH  024%=      5-min Rain = 0
KMC5 181753Z 28005KT 21/M01 A2994 RMK A01 T02081006  RH  024%=      5-min Rain = 0
KMC5 181754Z 28006KT 21/M00 A2994 RMK A01 T02091004  RH  024%=      5-min Rain = 0
KMC5 181755Z 28007KT 21/M00 A2994 RMK A01 T02091002  RH  024%=      5-min Rain = 0
KMC5 181756Z 29007KT 21/00 A2994 RMK A01 T020900-0  RH  025%=      5-min Rain = 0
KMC5 181757Z 28007KT 21/01 A2994 RMK A01 T02090006  RH  026%=      5-min Rain = 0
KMC5 181758Z 29006KT 21/01 A2994 RMK A01 T02100007  RH  026%=      5-min Rain = 0
KMC5 181759Z 28007KT 21/00 A2994 RMK A01 T02100000  RH  025%=      5-min Rain = 0
KMC5 181800Z 28007KT 21/M02 A2994 RMK A01 T02111019  RH  021%=      5-min Rain = 0
KMC5 181801Z 28006KT 21/M02 A2994 RMK A01 T02121023  RH  021%=      5-min Rain = 0
KMC5 181802Z 25004KT 21/M02 A2994 RMK A01 T02121018  RH  021%=      5-min Rain = 0
KMC5 181803Z 25003KT 21/M01 A2994 RMK A01 T02121012  RH  022%=      5-min Rain = 0
KMC5 181804Z 29006KT 21/M01 A2994 RMK A01 T02121009  RH  023%=      5-min Rain = 0
KMC5 181805Z 30006KT 21/M01 A2994 RMK A01 T02131013  RH  022%=      5-min Rain = 0
KMC5 181806Z 29007KT 21/M02 A2994 RMK A01 T02141018  RH  021%=      5-min Rain = 0
KMC5 181807Z 27004KT 21/M02 A2994 RMK A01 T02141018  RH  021%=      5-min Rain = 0
KMC5 181808Z 29004KT 22/M02 A2994 RMK A01 T02151018  RH  021%=      5-min Rain = 0
KMC5 181809Z 29003KT 21/M02 A2994 RMK A01 T02141017  RH  021%=      5-min Rain = 0
KMC5 181810Z 30005KT 21/M02 A2994 RMK A01 T02141015  RH  021%=      5-min Rain = 0
KMC5 181811Z 31005KT 22/M02 A2994 RMK A01 T02151015  RH  021%=      5-min Rain = 0
KMC5 181812Z 30005KT 22/M02 A2994 RMK A01 T02151017  RH  021%=      5-min Rain = 0
KMC5 181813Z 30005KT 22/M01 A2994 RMK A01 T02151012  RH  022%=      5-min Rain = 0
KMC5 181814Z 31005KT 22/M01 A2994 RMK A01 T02171013  RH  021%=      5-min Rain = 0
KMC5 181815Z 31005KT 22/M01 A2994 RMK A01 T02161013  RH  022%=      5-min Rain = 0
KMC5 181816Z 32004KT 22/M01 A2994 RMK A01 T02161010  RH  022%=      5-min Rain = 0
KMC5 181817Z 31003KT 22/M01 A2993 RMK A01 T02171012  RH  022%=      5-min Rain = 0
KMC5 181818Z 29004KT 22/M01 A2993 RMK A01 T02181012  RH  021%=      5-min Rain = 0
KMC5 181819Z 29004KT 22/M02 A2993 RMK A01 T02201015  RH  021%=      5-min Rain = 0
KMC5 181820Z 31005KT 22/M01 A2993 RMK A01 T02221012  RH  021%=      5-min Rain = 0
KMC5 181821Z 32003KT 22/M01 A2993 RMK A01 T02221011  RH  021%=      5-min Rain = 0
KMC5 181822Z 31007KT 22/M02 A2993 RMK A01 T02231018  RH  020%=      5-min Rain = 0
KMC5 181823Z 31007KT 22/M02 A2993 RMK A01 T02221022  RH  020%=      5-min Rain = 0
KMC5 181824Z 31004KT 22/M02 A2993 RMK A01 T02201021  RH  020%=      5-min Rain = 0
KMC5 181825Z 32005KT 22/M02 A2993 RMK A01 T02191021  RH  020%=      5-min Rain = 0
KMC5 181826Z 31003KT 22/M03 A2993 RMK A01 T02191027  RH  019%=      5-min Rain = 0
KMC5 181827Z 31002KT 22/M03 A2993 RMK A01 T02181025  RH  019%=      5-min Rain = 0
KMC5 181828Z 28003KT 22/M02 A2993 RMK A01 T02181023  RH  020%=      5-min Rain = 0
KMC5 181829Z 26004KT 22/M02 A2993 RMK A01 T02201020  RH  020%=      5-min Rain = 0
KMC5 181830Z 29004KT 22/M02 A2993 RMK A01 T02221021  RH  020%=      5-min Rain = 0
KMC5 181831Z 30004KT 22/M02 A2993 RMK A01 T02231022  RH  019%=      5-min Rain = 0
KMC5 181832Z 31004KT 22/M02 A2993 RMK A01 T02221022  RH  019%=      5-min Rain = 0
KMC5 181833Z 31004KT 22/M02 A2993 RMK A01 T02221023  RH  019%=      5-min Rain = 0
KMC5 181834Z 29003KT 22/M02 A2993 RMK A01 T02211023  RH  019%=      5-min Rain = 0
KMC5 181835Z 32004KT 22/M02 A2993 RMK A01 T02231023  RH  019%=      5-min Rain = 0
KMC5 181836Z 33005KT 22/M03 A2993 RMK A01 T02241025  RH  019%=      5-min Rain = 0
KMC5 181837Z 34004KT 22/M03 A2993 RMK A01 T02231026  RH  019%=      5-min Rain = 0
KMC5 181838Z 30004KT 22/M02 A2993 RMK A01 T02231023  RH  019%=      5-min Rain = 0
KMC5 181839Z 30004KT 23/M03 A2993 RMK A01 T02251025  RH  019%=      5-min Rain = 0
KMC5 181840Z 32007KT 23/M02 A2993 RMK A01 T02251022  RH  019%=      5-min Rain = 0
KMC5 181841Z 31005KT 23/M02 A2993 RMK A01 T02251022  RH  019%=      5-min Rain = 0
KMC5 181842Z 31004KT 23/M02 A2993 RMK A01 T02251022  RH  019%=      5-min Rain = 0
KMC5 181843Z 31005KT 23/M02 A2993 RMK A01 T02271022  RH  019%=      5-min Rain = 0
KMC5 181844Z 33007KT 23/M02 A2993 RMK A01 T02281022  RH  019%=      5-min Rain = 0
KMC5 181845Z 33006KT 23/M02 A2993 RMK A01 T02281022  RH  019%=      5-min Rain = 0
KMC5 181846Z 32003KT 23/M02 A2993 RMK A01 T02271022  RH  019%=      5-min Rain = 0
KMC5 181847Z 32004KT 23/M02 A2993 RMK A01 T02261022  RH  019%=      5-min Rain = 0
KMC5 181848Z 33007KT 23/M02 A2993 RMK A01 T02251019  RH  020%=      5-min Rain = 0
KMC5 181849Z 35009KT 23/M01 A2993 RMK A01 T02261013  RH  020%=      5-min Rain = 0
KMC5 181850Z 35010KT 23/M01 A2993 RMK A01 T02291012  RH  020%=      5-min Rain = 0
KMC5 181851Z 35006KT 23/M01 A2993 RMK A01 T02291014  RH  020%=      5-min Rain = 0
KMC5 181852Z 36008KT 23/M01 A2993 RMK A01 T02271012  RH  020%=      5-min Rain = 0
KMC5 181853Z 02006KT 23/M01 A2993 RMK A01 T02271014  RH  020%=      5-min Rain = 0
KMC5 181854Z 01005KT 23/M02 A2993 RMK A01 T02251015  RH  020%=      5-min Rain = 0
KMC5 181855Z 36009KT 23/M02 A2993 RMK A01 T02261015  RH  020%=      5-min Rain = 0
KMC5 181856Z 36005KT 23/M02 A2993 RMK A01 T02261016  RH  020%=      5-min Rain = 0
KMC5 181857Z 35004KT 23/M02 A2993 RMK A01 T02251015  RH  020%=      5-min Rain = 0
KMC5 181858Z 35005G10KT 23/M02 A2993 RMK A01 T02251015  RH  020%=      5-min Rain = 0
KMC5 181859Z 33009KT 23/M01 A2993 RMK A01 T02271012  RH  020%=      5-min Rain = 0
KMC5 181900Z 33007KT 23/M02 A2993 RMK A01 T02281015  RH  020%=      5-min Rain = 0
KMC5 181901Z 33007KT 23/M02 A2993 RMK A01 T02261016  RH  020%=      5-min Rain = 0
KMC5 181902Z 33005KT 23/M02 A2993 RMK A01 T02261015  RH  020%=      5-min Rain = 0
KMC5 181903Z 35004KT 23/M02 A2993 RMK A01 T02261015  RH  020%=      5-min Rain = 0
KMC5 181904Z 35005KT 23/M02 A2992 RMK A01 T02271016  RH  020%=      5-min Rain = 0
KMC5 181905Z 32004KT 23/M02 A2992 RMK A01 T02271019  RH  019%=      5-min Rain = 0
KMC5 181906Z 34004KT 23/M02 A2992 RMK A01 T02271019  RH  019%=      5-min Rain = 0
KMC5 181907Z 32004KT 23/M02 A2992 RMK A01 T02261019  RH  019%=      5-min Rain = 0
KMC5 181908Z 30007KT 23/M02 A2992 RMK A01 T02271017  RH  020%=      5-min Rain = 0
KMC5 181909Z 31004KT 23/M02 A2992 RMK A01 T02281018  RH  019%=      5-min Rain = 0
KMC5 181910Z 34005KT 23/M02 A2992 RMK A01 T02291018  RH  019%=      5-min Rain = 0
KMC5 181911Z 35005KT 23/M02 A2992 RMK A01 T02301023  RH  018%=      5-min Rain = 0
KMC5 181912Z 35004KT 23/M02 A2992 RMK A01 T02281023  RH  019%=      5-min Rain = 0
KMC5 181913Z 01002KT 23/M02 A2992 RMK A01 T02291024  RH  018%=      5-min Rain = 0
KMC5 181914Z 01000KT 23/M03 A2992 RMK A01 T02291025  RH  018%=      5-min Rain = 0
KMC5 181915Z 29002KT 23/M02 A2992 RMK A01 T02301024  RH  018%=      5-min Rain = 0
KMC5 181916Z 30004KT 23/M02 A2992 RMK A01 T02301023  RH  018%=      5-min Rain = 0
KMC5 181917Z 29002KT 23/M03 A2992 RMK A01 T02291025  RH  018%=      5-min Rain = 0
KMC5 181918Z 30001KT 23/M02 A2992 RMK A01 T02281024  RH  019%=      5-min Rain = 0
KMC5 181919Z 28002KT 23/M02 A2992 RMK A01 T02291021  RH  019%=      5-min Rain = 0
KMC5 181920Z 28003KT 23/M02 A2992 RMK A01 T02311024  RH  018%=      5-min Rain = 0
KMC5 181921Z 31006KT 23/M02 A2992 RMK A01 T02311024  RH  018%=      5-min Rain = 0
KMC5 181922Z 31007KT 23/M03 A2992 RMK A01 T02311026  RH  018%=      5-min Rain = 0
KMC5 181923Z 30006KT 23/M03 A2992 RMK A01 T02301026  RH  018%=      5-min Rain = 0
KMC5 181924Z 31004KT 23/M03 A2992 RMK A01 T02281026  RH  018%=      5-min Rain = 0
KMC5 181925Z 32003KT 23/M03 A2992 RMK A01 T02271026  RH  018%=      5-min Rain = 0
KMC5 181926Z 30004KT 23/M03 A2992 RMK A01 T02271025  RH  018%=      5-min Rain = 0
KMC5 181927Z 28003KT 23/M03 A2992 RMK A01 T02271028  RH  018%=      5-min Rain = 0
KMC5 181928Z 30003KT 23/M03 A2992 RMK A01 T02271028  RH  018%=      5-min Rain = 0
KMC5 181929Z 30002KT 23/M03 A2991 RMK A01 T02271029  RH  018%=      5-min Rain = 0
KMC5 181930Z 31002KT 23/M03 A2991 RMK A01 T02261027  RH  018%=      5-min Rain = 0
KMC5 181931Z 31001KT 23/M03 A2991 RMK A01 T02271028  RH  018%=      5-min Rain = 0
KMC5 181932Z 30000KT 23/M03 A2991 RMK A01 T02281028  RH  018%=      5-min Rain = 0
KMC5 181933Z 12000KT 23/M03 A2991 RMK A01 T02301027  RH  018%=      5-min Rain = 0
KMC5 181934Z 31005KT 23/M03 A2991 RMK A01 T02321025  RH  018%=      5-min Rain = 0
KMC5 181935Z 30004KT 23/M03 A2991 RMK A01 T02331025  RH  018%=      5-min Rain = 0
KMC5 181941Z 32005KT 23/M03 A2991 RMK A01 T02321026  RH  018%=      5-min Rain = 0
KMC5 181942Z 06000KT 23/M03 A2991 RMK A01 T02311029  RH  018%=      5-min Rain = 0
KMC5 181943Z 36001KT 23/M03 A2991 RMK A01 T02301027  RH  018%=      5-min Rain = 0
KMC5 181944Z 01004KT 23/M03 A2991 RMK A01 T02311027  RH  018%=      5-min Rain = 0
KMC5 181945Z 01003KT 23/M03 A2991 RMK A01 T02341025  RH  018%=      5-min Rain = 0
KMC5 181946Z 01003KT 24/M03 A2991 RMK A01 T02361026  RH  017%=      5-min Rain = 0
KMC5 181947Z 30002KT 24/M03 A2991 RMK A01 T02361026  RH  017%=      5-min Rain = 0
KMC5 181948Z 29003KT 24/M03 A2991 RMK A01 T02361026  RH  017%=      5-min Rain = 0
KMC5 181949Z 34001KT 24/M03 A299 RMK A01 T02351027  RH  017%=      5-min Rain = 0
KMC5 181950Z 28003KT 24/M03 A299 RMK A01 T02351027  RH  017%=      5-min Rain = 0
KMC5 181951Z 27005KT 23/M03 A299 RMK A01 T02341027  RH  017%=      5-min Rain = 0
KMC5 181952Z 24003KT 23/M03 A299 RMK A01 T02341026  RH  018%=      5-min Rain = 0
KMC5 181953Z 23001KT 24/M03 A299 RMK A01 T02351027  RH  017%=      5-min Rain = 0
KMC5 181954Z 27004KT 24/M03 A299 RMK A01 T02351027  RH  017%=      5-min Rain = 0
KMC5 181955Z 26004KT 24/M03 A299 RMK A01 T02361028  RH  017%=      5-min Rain = 0
KMC5 181956Z 26004KT 24/M03 A299 RMK A01 T02371028  RH  017%=      5-min Rain = 0
KMC5 181957Z 25002KT 24/M03 A299 RMK A01 T02371028  RH  017%=      5-min Rain = 0
KMC5 181958Z 29005KT 24/M03 A299 RMK A01 T02381027  RH  017%=      5-min Rain = 0
KMC5 181959Z 31005KT 24/M03 A299 RMK A01 T02381027  RH  017%=      5-min Rain = 0
KMC5 182000Z 31006KT 24/M02 A299 RMK A01 T02371023  RH  018%=      5-min Rain = 0
KMC5 182001Z 30006KT 24/M02 A299 RMK A01 T02371024  RH  018%=      5-min Rain = 0
KMC5 182002Z 30006KT 24/M02 A299 RMK A01 T02361022  RH  018%=      5-min Rain = 0
KMC5 182003Z 31004KT 24/M02 A299 RMK A01 T02361020  RH  018%=      5-min Rain = 0
KMC5 182004Z 34006KT 24/M02 A299 RMK A01 T02351019  RH  018%=      5-min Rain = 0
KMC5 182005Z 34007KT 24/M02 A299 RMK A01 T02381017  RH  018%=      5-min Rain = 0
KMC5 182006Z 34004KT 24/M02 A299 RMK A01 T02361017  RH  019%=      5-min Rain = 0
KMC5 182007Z 33008KT 23/M02 A299 RMK A01 T02341015  RH  019%=      5-min Rain = 0
KMC5 182008Z 34008KT 23/M01 A299 RMK A01 T02331014  RH  019%=      5-min Rain = 0
KMC5 182009Z 34008KT 24/M02 A299 RMK A01 T02351016  RH  019%=      5-min Rain = 0
KMC5 182010Z 34010KT 24/M02 A299 RMK A01 T02361018  RH  018%=      5-min Rain = 0
KMC5 182011Z 34010KT 24/M02 A299 RMK A01 T02361019  RH  018%=      5-min Rain = 0
KMC5 182012Z 34008KT 24/M02 A2991 RMK A01 T02361023  RH  018%=      5-min Rain = 0
KMC5 182013Z 01008KT 24/M02 A299 RMK A01 T02351022  RH  018%=      5-min Rain = 0
KMC5 182014Z 35009KT 23/M02 A2991 RMK A01 T02341021  RH  018%=      5-min Rain = 0
KMC5 182015Z 00009KT 24/M02 A2991 RMK A01 T02351021  RH  018%=      5-min Rain = 0
KMC5 182016Z 02008KT 24/M02 A299 RMK A01 T02371023  RH  018%=      5-min Rain = 0
KMC5 182017Z 01005KT 24/M02 A299 RMK A01 T02361024  RH  018%=      5-min Rain = 0
KMC5 182018Z 00005KT 24/M02 A299 RMK A01 T02361022  RH  018%=      5-min Rain = 0
KMC5 182019Z 35003KT 24/M02 A299 RMK A01 T02371024  RH  017%=      5-min Rain = 0
KMC5 182020Z 34003KT 24/M02 A299 RMK A01 T02371022  RH  018%=      5-min Rain = 0
KMC5 182021Z 32004KT 24/M02 A299 RMK A01 T02381024  RH  017%=      5-min Rain = 0
KMC5 182022Z 31004KT 24/M02 A299 RMK A01 T02381020  RH  018%=      5-min Rain = 0
KMC5 182023Z 33006KT 24/M02 A299 RMK A01 T02371019  RH  018%=      5-min Rain = 0
KMC5 182024Z 35009KT 24/M02 A299 RMK A01 T02371018  RH  018%=      5-min Rain = 0
KMC5 182025Z 35007KT 24/M02 A299 RMK A01 T02371021  RH  018%=      5-min Rain = 0
KMC5 182026Z 34010KT 24/M03 A299 RMK A01 T02361025  RH  017%=      5-min Rain = 0
KMC5 182027Z 34007KT 24/M03 A299 RMK A01 T02361025  RH  017%=      5-min Rain = 0
KMC5 182028Z 34006KT 24/M03 A299 RMK A01 T02371026  RH  017%=      5-min Rain = 0
KMC5 182029Z 31007KT 24/M02 A299 RMK A01 T02371023  RH  018%=      5-min Rain = 0
KMC5 182030Z 32007KT 24/M02 A299 RMK A01 T02381023  RH  017%=      5-min Rain = 0
KMC5 182031Z 33008KT 24/M02 A299 RMK A01 T02391024  RH  017%=      5-min Rain = 0
KMC5 182032Z 33009KT 24/M02 A299 RMK A01 T02381023  RH  018%=      5-min Rain = 0
KMC5 182033Z 32006KT 24/M02 A299 RMK A01 T02371024  RH  018%=      5-min Rain = 0
KMC5 182034Z 33004KT 24/M03 A299 RMK A01 T02361025  RH  018%=      5-min Rain = 0
KMC5 182035Z 35010KT 24/M02 A299 RMK A01 T02361023  RH  018%=      5-min Rain = 0
KMC5 182036Z 33007KT 24/M02 A299 RMK A01 T02371024  RH  018%=      5-min Rain = 0
KMC5 182037Z 35008KT 24/M03 A299 RMK A01 T02351025  RH  018%=      5-min Rain = 0
KMC5 182038Z 34007KT 23/M02 A299 RMK A01 T02341024  RH  018%=      5-min Rain = 0
KMC5 182039Z 33009G15KT 24/M02 A299 RMK A01 T02351023  RH  018%=      5-min Rain = 0
KMC5 182040Z 36010KT 24/M02 A299 RMK A01 T02361020  RH  018%=      5-min Rain = 0
KMC5 182041Z 36010KT 24/M02 A299 RMK A01 T02391021  RH  018%=      5-min Rain = 0
KMC5 182042Z 35009KT 24/M02 A299 RMK A01 T02391022  RH  018%=      5-min Rain = 0
KMC5 182043Z 33009KT 24/M02 A299 RMK A01 T02381023  RH  017%=      5-min Rain = 0
KMC5 182044Z 34009KT 24/M02 A299 RMK A01 T02361024  RH  018%=      5-min Rain = 0
KMC5 182045Z 33009KT 24/M03 A299 RMK A01 T02351025  RH  018%=      5-min Rain = 0
KMC5 182046Z 34006KT 23/M03 A299 RMK A01 T02341027  RH  018%=      5-min Rain = 0
KMC5 182047Z 32005KT 23/M03 A299 RMK A01 T02321025  RH  018%=      5-min Rain = 0
KMC5 182048Z 32005KT 23/M03 A299 RMK A01 T02331025  RH  018%=      5-min Rain = 0
KMC5 182049Z 32006KT 23/M03 A299 RMK A01 T02331026  RH  018%=      5-min Rain = 0
KMC5 182050Z 34008KT 23/M03 A299 RMK A01 T02321026  RH  018%=      5-min Rain = 0
KMC5 182051Z 33007KT 23/M03 A299 RMK A01 T02321025  RH  018%=      5-min Rain = 0
KMC5 182052Z 31007KT 23/M03 A2991 RMK A01 T02341026  RH  018%=      5-min Rain = 0
KMC5 182053Z 34008KT 23/M03 A2991 RMK A01 T02331028  RH  017%=      5-min Rain = 0
KMC5 182054Z 33008KT 23/M03 A2991 RMK A01 T02321029  RH  017%=      5-min Rain = 0
KMC5 182055Z 33007KT 23/M03 A2991 RMK A01 T02321027  RH  018%=      5-min Rain = 0
KMC5 182056Z 35008KT 24/M03 A2991 RMK A01 T02361027  RH  017%=      5-min Rain = 0
KMC5 182057Z 34006KT 24/M03 A2991 RMK A01 T02351029  RH  017%=      5-min Rain = 0
KMC5 182058Z 36008KT 24/M03 A2991 RMK A01 T02351026  RH  017%=      5-min Rain = 0
KMC5 182059Z 01006KT 24/M03 A2991 RMK A01 T02361027  RH  017%=      5-min Rain = 0
KMC5 182100Z 36008KT 24/M03 A2991 RMK A01 T02361027  RH  017%=      5-min Rain = 0
KMC5 182101Z 35008KT 24/M03 A2991 RMK A01 T02351029  RH  017%=      5-min Rain = 0
KMC5 182102Z 35007KT 23/M03 A2991 RMK A01 T02341029  RH  017%=      5-min Rain = 0
KMC5 182103Z 36006KT 23/M03 A2991 RMK A01 T02331029  RH  017%=      5-min Rain = 0
KMC5 182104Z 01008KT 23/M03 A2991 RMK A01 T02341029  RH  017%=      5-min Rain = 0
KMC5 182105Z 01009KT 24/M03 A2991 RMK A01 T02351026  RH  018%=      5-min Rain = 0
KMC5 182106Z 01009KT 24/M03 A2991 RMK A01 T02361025  RH  017%=      5-min Rain = 0
KMC5 182107Z 01008KT 24/M03 A2991 RMK A01 T02361026  RH  017%=      5-min Rain = 0
KMC5 182108Z 02007KT 24/M03 A2991 RMK A01 T02351026  RH  017%=      5-min Rain = 0
KMC5 182109Z 01006KT 24/M03 A2991 RMK A01 T02351025  RH  018%=      5-min Rain = 0
KMC5 182110Z 02005KT 24/M03 A2991 RMK A01 T02351026  RH  017%=      5-min Rain = 0
KMC5 182111Z 01004KT 23/M03 A2991 RMK A01 T02341027  RH  017%=      5-min Rain = 0
KMC5 182112Z 00004KT 23/M03 A2991 RMK A01 T02331027  RH  018%=      5-min Rain = 0
KMC5 182113Z 01009KT 23/M03 A2991 RMK A01 T02341026  RH  018%=      5-min Rain = 0
KMC5 182114Z 01010KT 24/M02 A2991 RMK A01 T02351024  RH  018%=      5-min Rain = 0
KMC5 182115Z 01008KT 24/M02 A2991 RMK A01 T02361024  RH  018%=      5-min Rain = 0
KMC5 182116Z 01007KT 24/M02 A2991 RMK A01 T02351024  RH  018%=      5-min Rain = 0
KMC5 182117Z 01008KT 23/M03 A2991 RMK A01 T02341026  RH  018%=      5-min Rain = 0
KMC5 182118Z 01007KT 23/M03 A2991 RMK A01 T02331025  RH  018%=      5-min Rain = 0
KMC5 182119Z 02008KT 23/M03 A2991 RMK A01 T02331027  RH  018%=      5-min Rain = 0
KMC5 182120Z 02007KT 23/M03 A299 RMK A01 T02331026  RH  018%=      5-min Rain = 0
KMC5 182121Z 03008KT 23/M03 A299 RMK A01 T02331027  RH  017%=      5-min Rain = 0
KMC5 182122Z 03009KT 23/M03 A299 RMK A01 T02331028  RH  017%=      5-min Rain = 0
KMC5 182123Z 03008KT 23/M03 A299 RMK A01 T02341026  RH  018%=      5-min Rain = 0
KMC5 182124Z 02010KT 24/M03 A299 RMK A01 T02351026  RH  017%=      5-min Rain = 0
KMC5 182125Z 02008KT 24/M03 A299 RMK A01 T02361027  RH  017%=      5-min Rain = 0
KMC5 182126Z 01012KT 24/M02 A299 RMK A01 T02351023  RH  018%=      5-min Rain = 0
KMC5 182127Z 00011KT 24/M02 A299 RMK A01 T02351016  RH  019%=      5-min Rain = 0
KMC5 182128Z 35013KT 23/M02 A299 RMK A01 T02331016  RH  019%=      5-min Rain = 0
KMC5 182129Z 34012KT 23/M02 A299 RMK A01 T02321015  RH  019%=      5-min Rain = 0
KMC5 182130Z 35010KT 23/M02 A299 RMK A01 T02311015  RH  019%=      5-min Rain = 0
KMC5 182131Z 35008KT 23/M01 A299 RMK A01 T02311013  RH  020%=      5-min Rain = 0
KMC5 182132Z 01008KT 23/M01 A299 RMK A01 T02321011  RH  020%=      5-min Rain = 0
KMC5 182133Z 01010KT 24/M01 A299 RMK A01 T02351009  RH  020%=      5-min Rain = 0
KMC5 182134Z 36012KT 24/M01 A299 RMK A01 T02361007  RH  020%=      5-min Rain = 0
KMC5 182135Z 35011KT 23/M01 A299 RMK A01 T02321006  RH  021%=      5-min Rain = 0
KMC5 182136Z 00011KT 23/M01 A299 RMK A01 T02311005  RH  021%=      5-min Rain = 0
KMC5 182137Z 01010KT 23/M01 A299 RMK A01 T02311005  RH  021%=      5-min Rain = 0
KMC5 182138Z 36010KT 23/M00 A299 RMK A01 T02321004  RH  021%=      5-min Rain = 0
KMC5 182139Z 01012KT 23/M01 A299 RMK A01 T02311005  RH  021%=      5-min Rain = 0
KMC5 182140Z 00009KT 23/M01 A299 RMK A01 T02301006  RH  021%=      5-min Rain = 0
KMC5 182141Z 36007KT 23/M00 A2991 RMK A01 T02301004  RH  021%=      5-min Rain = 0
KMC5 182142Z 36010KT 23/M00 A2991 RMK A01 T02301004  RH  021%=      5-min Rain = 0
KMC5 182143Z 00010KT 23/M00 A299 RMK A01 T02301004  RH  021%=      5-min Rain = 0
KMC5 182144Z 01011KT 23/M00 A299 RMK A01 T02301004  RH  021%=      5-min Rain = 0
KMC5 182145Z 00011KT 23/M00 A299 RMK A01 T02301003  RH  021%=      5-min Rain = 0
KMC5 182146Z 00012KT 23/M00 A299 RMK A01 T02311002  RH  021%=      5-min Rain = 0
KMC5 182147Z 02012KT 23/M00 A299 RMK A01 T02301003  RH  021%=      5-min Rain = 0
KMC5 182148Z 01011KT 23/M00 A299 RMK A01 T02291004  RH  021%=      5-min Rain = 0
KMC5 182149Z 01011KT 23/M00 A299 RMK A01 T02271004  RH  021%=      5-min Rain = 0
KMC5 182150Z 35008KT 23/M00 A299 RMK A01 T02271002  RH  022%=      5-min Rain = 0
KMC5 182151Z 35011KT 23/M00 A299 RMK A01 T02281001  RH  022%=      5-min Rain = 0
KMC5 182152Z 34011KT 23/M00 A299 RMK A01 T02281001  RH  022%=      5-min Rain = 0
KMC5 182153Z 36009KT 23/M00 A299 RMK A01 T02271001  RH  022%=      5-min Rain = 0
KMC5 182154Z 35009KT 23/M00 A299 RMK A01 T02271001  RH  022%=      5-min Rain = 0
KMC5 182155Z 35009KT 23/00 A299 RMK A01 T022700-0  RH  022%=      5-min Rain = 0
KMC5 182156Z 01010KT 23/M00 A299 RMK A01 T02271001  RH  022%=      5-min Rain = 0
KMC5 182157Z 02009KT 23/M00 A299 RMK A01 T02271002  RH  022%=      5-min Rain = 0
KMC5 182158Z 00010KT 23/M00 A299 RMK A01 T02271001  RH  022%=      5-min Rain = 0
KMC5 182159Z 02010KT 23/00 A299 RMK A01 T02270000  RH  022%=      5-min Rain = 0
KMC5 182200Z 02009KT 23/00 A299 RMK A01 T022700-0  RH  022%=      5-min Rain = 0
KMC5 182201Z 02010KT 23/00 A299 RMK A01 T02270000  RH  022%=      5-min Rain = 0
KMC5 182202Z 02009KT 23/00 A299 RMK A01 T02260000  RH  022%=      5-min Rain = 0
KMC5 182203Z 02007KT 23/00 A299 RMK A01 T02260001  RH  022%=      5-min Rain = 0
KMC5 182204Z 36008KT 23/00 A299 RMK A01 T02260001  RH  022%=      5-min Rain = 0
KMC5 182205Z 01011G16KT 23/00 A299 RMK A01 T022700-0  RH  022%=      5-min Rain = 0
KMC5 182206Z 01014KT 23/M00 A299 RMK A01 T02261001  RH  022%=      5-min Rain = 0
KMC5 182207Z 01012KT 23/M00 A299 RMK A01 T02251001  RH  022%=      5-min Rain = 0
KMC5 182208Z 01011KT 22/M00 A299 RMK A01 T02241002  RH  022%=      5-min Rain = 0
KMC5 182209Z 00010KT 22/M00 A299 RMK A01 T02241001  RH  022%=      5-min Rain = 0
KMC5 182210Z 01012KT 22/M00 A299 RMK A01 T02231001  RH  022%=      5-min Rain = 0
KMC5 182211Z 01010KT 22/M00 A299 RMK A01 T02231002  RH  022%=      5-min Rain = 0
KMC5 182212Z 01011KT 22/M00 A299 RMK A01 T02231001  RH  023%=      5-min Rain = 0
KMC5 182213Z 00009KT 22/M00 A299 RMK A01 T02231001  RH  023%=      5-min Rain = 0
KMC5 182214Z 02009KT 22/M00 A299 RMK A01 T02221001  RH  023%=      5-min Rain = 0
KMC5 182215Z 02011KT 22/M00 A299 RMK A01 T02221001  RH  023%=      5-min Rain = 0
KMC5 182216Z 01011KT 22/M00 A299 RMK A01 T02221001  RH  023%=      5-min Rain = 0
KMC5 182217Z 01009KT 22/M00 A299 RMK A01 T02221001  RH  023%=      5-min Rain = 0
KMC5 182218Z 01009KT 22/M00 A299 RMK A01 T02221001  RH  023%=      5-min Rain = 0
KMC5 182219Z 01012KT 22/M00 A299 RMK A01 T02221001  RH  023%=      5-min Rain = 0
KMC5 182220Z 02012KT 22/M00 A299 RMK A01 T02221001  RH  023%=      5-min Rain = 0
KMC5 182221Z 01011KT 22/M00 A299 RMK A01 T02211001  RH  023%=      5-min Rain = 0
KMC5 182222Z 01010KT 22/M00 A2991 RMK A01 T02201001  RH  023%=      5-min Rain = 0
KMC5 182223Z 01008KT 22/M00 A2991 RMK A01 T02201001  RH  023%=      5-min Rain = 0
KMC5 182224Z 01009KT 22/M00 A2991 RMK A01 T02211001  RH  023%=      5-min Rain = 0
KMC5 182225Z 01011KT 22/M00 A2991 RMK A01 T02211001  RH  023%=      5-min Rain = 0
KMC5 182226Z 00012KT 22/M00 A2991 RMK A01 T02201001  RH  023%=      5-min Rain = 0
KMC5 182227Z 00012KT 22/M00 A2991 RMK A01 T02191001  RH  023%=      5-min Rain = 0
KMC5 182228Z 01011KT 22/M00 A2991 RMK A01 T02191002  RH  023%=      5-min Rain = 0
KMC5 182229Z 01010KT 22/M00 A2991 RMK A01 T02191001  RH  023%=      5-min Rain = 0
KMC5 182230Z 01010KT 22/M00 A2991 RMK A01 T02191001  RH  023%=      5-min Rain = 0
KMC5 182231Z 01009KT 22/M00 A2991 RMK A01 T02191001  RH  023%=      5-min Rain = 0
KMC5 182232Z 01009KT 22/M00 A2991 RMK A01 T02191001  RH  023%=      5-min Rain = 0
KMC5 182233Z 01008KT 22/M00 A2991 RMK A01 T02181001  RH  023%=      5-min Rain = 0
KMC5 182234Z 01008KT 22/M00 A2991 RMK A01 T02181001  RH  023%=      5-min Rain = 0
KMC5 182235Z 01010KT 22/00 A2991 RMK A01 T02180000  RH  023%=      5-min Rain = 0
KMC5 182236Z 01009KT 22/00 A2991 RMK A01 T021700-0  RH  023%=      5-min Rain = 0
KMC5 182237Z 01010KT 22/00 A2991 RMK A01 T021700-0  RH  024%=      5-min Rain = 0
KMC5 182238Z 01010KT 22/00 A2991 RMK A01 T021700-0  RH  024%=      5-min Rain = 0
KMC5 182239Z 01009KT 22/M00 A2991 RMK A01 T02161001  RH  024%=      5-min Rain = 0
KMC5 182240Z 01009KT 22/00 A2991 RMK A01 T02160000  RH  024%=      5-min Rain = 0
KMC5 182241Z 01008KT 22/00 A2991 RMK A01 T02150000  RH  024%=      5-min Rain = 0
KMC5 182242Z 01007KT 22/00 A2991 RMK A01 T02150000  RH  024%=      5-min Rain = 0
KMC5 182243Z 01007KT 21/00 A2991 RMK A01 T02140000  RH  024%=      5-min Rain = 0
KMC5 182244Z 01008KT 21/00 A2991 RMK A01 T02140000  RH  024%=      5-min Rain = 0
KMC5 182245Z 01010KT 21/00 A2991 RMK A01 T02130000  RH  024%=      5-min Rain = 0
KMC5 182246Z 01010KT 21/00 A2991 RMK A01 T02130001  RH  024%=      5-min Rain = 0
KMC5 182247Z 01009KT 21/00 A2992 RMK A01 T02130002  RH  024%=      5-min Rain = 0
KMC5 182248Z 01008KT 21/00 A2992 RMK A01 T02120002  RH  025%=      5-min Rain = 0
KMC5 182249Z 00009KT 21/00 A2992 RMK A01 T02120002  RH  025%=      5-min Rain = 0
KMC5 182250Z 01008KT 21/00 A2992 RMK A01 T02110002  RH  025%=      5-min Rain = 0
KMC5 182251Z 00007KT 21/00 A2992 RMK A01 T02100003  RH  025%=      5-min Rain = 0
KMC5 182252Z 01008KT 21/00 A2992 RMK A01 T02090003  RH  025%=      5-min Rain = 0
KMC5 182253Z 01009KT 21/00 A2992 RMK A01 T02080003  RH  025%=      5-min Rain = 0
KMC5 182254Z 01008KT 21/00 A2992 RMK A01 T02080003  RH  025%=      5-min Rain = 0
KMC5 182255Z 01009KT 21/00 A2992 RMK A01 T02080003  RH  025%=      5-min Rain = 0
KMC5 182256Z 01008KT 21/00 A2992 RMK A01 T02070003  RH  026%=      5-min Rain = 0
KMC5 182257Z 01008KT 21/00 A2992 RMK A01 T02060003  RH  026%=      5-min Rain = 0
KMC5 182258Z 01008KT 21/00 A2992 RMK A01 T02050003  RH  026%=      5-min Rain = 0
KMC5 182259Z 01008KT 21/00 A2992 RMK A01 T02050003  RH  026%=      5-min Rain = 0
KMC5 182300Z 01007KT 20/00 A2992 RMK A01 T02040003  RH  026%=      5-min Rain = 0
KMC5 182301Z 01007KT 20/00 A2992 RMK A01 T02030003  RH  026%=      5-min Rain = 0
KMC5 182302Z 02007KT 20/00 A2992 RMK A01 T02020003  RH  026%=      5-min Rain = 0
KMC5 182303Z 01007KT 20/00 A2992 RMK A01 T02010003  RH  027%=      5-min Rain = 0
KMC5 182304Z 01007KT 20/00 A2992 RMK A01 T02010003  RH  027%=      5-min Rain = 0
KMC5 182305Z 01007KT 20/00 A2992 RMK A01 T02000003  RH  027%=      5-min Rain = 0
KMC5 182306Z 01007KT 20/00 A2992 RMK A01 T01990003  RH  027%=      5-min Rain = 0
KMC5 182307Z 01007KT 20/00 A2992 RMK A01 T01980004  RH  027%=      5-min Rain = 0
KMC5 182308Z 01007KT 20/00 A2992 RMK A01 T01970003  RH  027%=      5-min Rain = 0
KMC5 182309Z 01007KT 20/00 A2992 RMK A01 T01960003  RH  027%=      5-min Rain = 0
KMC5 182310Z 01007KT 20/00 A2992 RMK A01 T01960003  RH  028%=      5-min Rain = 0
KMC5 182311Z 01007KT 20/00 A2992 RMK A01 T01950003  RH  028%=      5-min Rain = 0
KMC5 182312Z 00006KT 19/00 A2992 RMK A01 T01940003  RH  028%=      5-min Rain = 0
KMC5 182313Z 01007KT 19/00 A2992 RMK A01 T01930003  RH  028%=      5-min Rain = 0
KMC5 182314Z 01007KT 19/00 A2992 RMK A01 T01920004  RH  028%=      5-min Rain = 0
KMC5 182315Z 01007KT 19/00 A2992 RMK A01 T01900003  RH  028%=      5-min Rain = 0
KMC5 182316Z 01008KT 19/00 A2992 RMK A01 T01900003  RH  029%=      5-min Rain = 0
KMC5 182317Z 01008KT 19/00 A2992 RMK A01 T01890003  RH  029%=      5-min Rain = 0
KMC5 182318Z 01008KT 19/00 A2992 RMK A01 T01880003  RH  029%=      5-min Rain = 0
KMC5 182319Z 01008KT 19/00 A2992 RMK A01 T01880003  RH  029%=      5-min Rain = 0
KMC5 182320Z 01008KT 19/00 A2993 RMK A01 T01860003  RH  029%=      5-min Rain = 0
KMC5 182321Z 01009KT 19/00 A2993 RMK A01 T01850003  RH  029%=      5-min Rain = 0
KMC5 182322Z 01008KT 18/00 A2993 RMK A01 T01840003  RH  030%=      5-min Rain = 0
KMC5 182323Z 01008KT 18/00 A2993 RMK A01 T01830003  RH  030%=      5-min Rain = 0
KMC5 182324Z 01008KT 18/00 A2993 RMK A01 T01820003  RH  030%=      5-min Rain = 0
KMC5 182325Z 01008KT 18/00 A2993 RMK A01 T01810003  RH  030%=      5-min Rain = 0
KMC5 182326Z 00008KT 18/00 A2993 RMK A01 T01800003  RH  030%=      5-min Rain = 0
KMC5 182327Z 00008KT 18/00 A2993 RMK A01 T01790003  RH  030%=      5-min Rain = 0
KMC5 182328Z 00008KT 18/00 A2993 RMK A01 T01770002  RH  031%=      5-min Rain = 0
KMC5 182329Z 00007KT 18/00 A2993 RMK A01 T01760003  RH  031%=      5-min Rain = 0
KMC5 182330Z 00007KT 18/00 A2993 RMK A01 T01750003  RH  031%=      5-min Rain = 0
KMC5 182331Z 00008KT 17/00 A2993 RMK A01 T01740003  RH  032%=      5-min Rain = 0
KMC5 182332Z 00008KT 17/00 A2993 RMK A01 T01730003  RH  032%=      5-min Rain = 0
KMC5 182333Z 00008KT 17/00 A2993 RMK A01 T01720003  RH  032%=      5-min Rain = 0
KMC5 182334Z 00008KT 17/00 A2993 RMK A01 T01720004  RH  032%=      5-min Rain = 0
KMC5 182335Z 00008KT 17/00 A2993 RMK A01 T01710003  RH  032%=      5-min Rain = 0
KMC5 182336Z 00009KT 17/00 A2993 RMK A01 T01710004  RH  032%=      5-min Rain = 0
KMC5 182337Z 00009KT 17/00 A2993 RMK A01 T01700004  RH  032%=      5-min Rain = 0
KMC5 182338Z 00009KT 17/00 A2994 RMK A01 T01700004  RH  032%=      5-min Rain = 0
KMC5 182339Z 36009KT 17/00 A2994 RMK A01 T01690004  RH  033%=      5-min Rain = 0
KMC5 182340Z 00009KT 17/00 A2994 RMK A01 T01690004  RH  033%=      5-min Rain = 0
KMC5 182341Z 00009KT 17/00 A2994 RMK A01 T01680004  RH  033%=      5-min Rain = 0
KMC5 182342Z 36009KT 17/00 A2994 RMK A01 T01670003  RH  033%=      5-min Rain = 0
KMC5 182343Z 00010KT 17/00 A2994 RMK A01 T01660003  RH  033%=      5-min Rain = 0
KMC5 182344Z 00010KT 17/00 A2994 RMK A01 T01660004  RH  033%=      5-min Rain = 0
KMC5 182345Z 00010KT 17/00 A2994 RMK A01 T01660004  RH  033%=      5-min Rain = 0
KMC5 182346Z 00009KT 17/00 A2994 RMK A01 T01650003  RH  033%=      5-min Rain = 0
KMC5 182347Z 00009KT 17/00 A2994 RMK A01 T01660004  RH  033%=      5-min Rain = 0
KMC5 182348Z 36009KT 17/00 A2994 RMK A01 T01660004  RH  033%=      5-min Rain = 0
KMC5 182349Z 00009KT 17/00 A2994 RMK A01 T01660004  RH  033%=      5-min Rain = 0
KMC5 182350Z 00009KT 17/00 A2994 RMK A01 T01660004  RH  033%=      5-min Rain = 0
KMC5 182351Z 00009KT 17/00 A2994 RMK A01 T01650003  RH  033%=      5-min Rain = 0
KMC5 182352Z 36009KT 16/00 A2994 RMK A01 T01640003  RH  033%=      5-min Rain = 0
KMC5 182353Z 36009KT 16/00 A2994 RMK A01 T01640004  RH  034%=      5-min Rain = 0
KMC5 182354Z 00009KT 16/00 A2994 RMK A01 T01640003  RH  034%=      5-min Rain = 0
KMC5 182355Z 00009KT 17/00 A2995 RMK A01 T01650004  RH  034%=      5-min Rain = 0
KMC5 182356Z 36009KT 16/00 A2995 RMK A01 T01640004  RH  034%=      5-min Rain = 0
KMC5 182357Z 36009KT 16/00 A2995 RMK A01 T01630003  RH  034%=      5-min Rain = 0
KMC5 182358Z 36009KT 16/00 A2995 RMK A01 T01630003  RH  034%=      5-min Rain = 0
KMC5 182359Z 36010KT 16/00 A2995 RMK A01 T01620003  RH  034%=      5-min Rain = 0
KMC5 190000Z 36010KT 16/00 A2995 RMK A01 T01620004  RH  034%=      5-min Rain = 0
KMC5 190001Z 00010KT 16/00 A2995 RMK A01 T01610004  RH  034%=      5-min Rain = 0
KMC5 190002Z 36010KT 16/00 A2995 RMK A01 T01610004  RH  034%=      5-min Rain = 0
KMC5 190003Z 36011KT 16/00 A2995 RMK A01 T01610004  RH  034%=      5-min Rain = 0
KMC5 190004Z 36011KT 16/00 A2995 RMK A01 T01610004  RH  034%=      5-min Rain = 0
KMC5 190005Z 36011KT 16/00 A2995 RMK A01 T01610004  RH  034%=      5-min Rain = 0
KMC5 190006Z 36011KT 16/00 A2995 RMK A01 T01610004  RH  034%=      5-min Rain = 0
KMC5 190007Z 36011KT 16/00 A2995 RMK A01 T01600004  RH  035%=      5-min Rain = 0
KMC5 190008Z 36011KT 16/00 A2995 RMK A01 T01600004  RH  034%=      5-min Rain = 0
KMC5 190009Z 36011KT 16/00 A2995 RMK A01 T01620004  RH  034%=      5-min Rain = 0
KMC5 190010Z 36011KT 16/00 A2995 RMK A01 T01620004  RH  034%=      5-min Rain = 0
KMC5 190011Z 36010KT 16/00 A2995 RMK A01 T01610004  RH  034%=      5-min Rain = 0
KMC5 190012Z 36010KT 16/00 A2995 RMK A01 T01610004  RH  034%=      5-min Rain = 0
KMC5 190013Z 36010KT 16/00 A2995 RMK A01 T01610004  RH  034%=      5-min Rain = 0
KMC5 190014Z 36010KT 16/00 A2995 RMK A01 T01610004  RH  034%=      5-min Rain = 0
KMC5 190015Z 35009KT 16/00 A2995 RMK A01 T01610004  RH  034%=      5-min Rain = 0
KMC5 190016Z 00009KT 16/00 A2995 RMK A01 T01600004  RH  034%=      5-min Rain = 0
KMC5 190017Z 36009KT 16/00 A2995 RMK A01 T01590003  RH  035%=      5-min Rain = 0
KMC5 190018Z 35009KT 16/00 A2995 RMK A01 T01580003  RH  035%=      5-min Rain = 0
KMC5 190019Z 35009KT 16/00 A2995 RMK A01 T01570003  RH  035%=      5-min Rain = 0
KMC5 190020Z 35009KT 16/00 A2996 RMK A01 T01560003  RH  035%=      5-min Rain = 0
KMC5 190021Z 35009KT 16/00 A2996 RMK A01 T01560003  RH  035%=      5-min Rain = 0
KMC5 190022Z 35009KT 16/00 A2996 RMK A01 T01550003  RH  035%=      5-min Rain = 0
KMC5 190023Z 35010KT 15/00 A2996 RMK A01 T01540003  RH  036%=      5-min Rain = 0
KMC5 190024Z 35010KT 15/00 A2996 RMK A01 T01530003  RH  036%=      5-min Rain = 0
KMC5 190025Z 35010KT 15/00 A2996 RMK A01 T01520003  RH  036%=      5-min Rain = 0
KMC5 190026Z 35010KT 15/00 A2996 RMK A01 T01520003  RH  036%=      5-min Rain = 0
KMC5 190027Z 36011KT 15/00 A2996 RMK A01 T01520003  RH  036%=      5-min Rain = 0
KMC5 190028Z 36010KT 15/00 A2996 RMK A01 T01520004  RH  036%=      5-min Rain = 0
KMC5 190029Z 36010KT 15/00 A2996 RMK A01 T01520004  RH  036%=      5-min Rain = 0
KMC5 190030Z 35010KT 15/00 A2996 RMK A01 T01520004  RH  036%=      5-min Rain = 0
KMC5 190031Z 00010KT 15/00 A2996 RMK A01 T01520004  RH  036%=      5-min Rain = 0
KMC5 190032Z 00010KT 15/00 A2996 RMK A01 T01530004  RH  036%=      5-min Rain = 0
KMC5 190033Z 00010KT 15/00 A2996 RMK A01 T01530004  RH  036%=      5-min Rain = 0
KMC5 190034Z 00010KT 15/00 A2996 RMK A01 T01540004  RH  036%=      5-min Rain = 0
KMC5 190035Z 00010KT 15/00 A2996 RMK A01 T01540004  RH  036%=      5-min Rain = 0
KMC5 190036Z 00010KT 15/00 A2996 RMK A01 T01540004  RH  036%=      5-min Rain = 0
KMC5 190037Z 00010KT 15/00 A2996 RMK A01 T01540004  RH  036%=      5-min Rain = 0
KMC5 190038Z 00009KT 15/00 A2996 RMK A01 T01540004  RH  036%=      5-min Rain = 0
KMC5 190039Z 00009KT 15/00 A2996 RMK A01 T01540004  RH  036%=      5-min Rain = 0
KMC5 190040Z 00009KT 15/00 A2996 RMK A01 T01540004  RH  036%=      5-min Rain = 0
KMC5 190041Z 00009KT 15/00 A2996 RMK A01 T01540004  RH  036%=      5-min Rain = 0
KMC5 190042Z 35009KT 15/00 A2996 RMK A01 T01540003  RH  036%=      5-min Rain = 0
KMC5 190043Z 35010KT 15/00 A2996 RMK A01 T01540003  RH  036%=      5-min Rain = 0
KMC5 190044Z 35010KT 15/00 A2996 RMK A01 T01540003  RH  036%=      5-min Rain = 0
KMC5 190045Z 35010KT 15/00 A2996 RMK A01 T01540003  RH  036%=      5-min Rain = 0
KMC5 190046Z 35010KT 15/00 A2996 RMK A01 T01540003  RH  036%=      5-min Rain = 0
KMC5 190047Z 35011KT 15/00 A2996 RMK A01 T01540003  RH  036%=      5-min Rain = 0
KMC5 190048Z 35011KT 15/00 A2996 RMK A01 T01530003  RH  036%=      5-min Rain = 0
KMC5 190049Z 35011KT 15/00 A2996 RMK A01 T01520004  RH  036%=      5-min Rain = 0
KMC5 190050Z 36011KT 15/00 A2996 RMK A01 T01520003  RH  036%=      5-min Rain = 0
KMC5 190051Z 36011KT 15/00 A2996 RMK A01 T01510004  RH  037%=      5-min Rain = 0
KMC5 190052Z 00011KT 15/00 A2996 RMK A01 T01510004  RH  037%=      5-min Rain = 0
KMC5 190053Z 36010KT 15/00 A2997 RMK A01 T01510004  RH  037%=      5-min Rain = 0
KMC5 190054Z 36010KT 15/00 A2997 RMK A01 T01510004  RH  037%=      5-min Rain = 0
KMC5 190055Z 36009KT 15/00 A2997 RMK A01 T01510003  RH  036%=      5-min Rain = 0
KMC5 190056Z 36009KT 15/00 A2997 RMK A01 T01510003  RH  036%=      5-min Rain = 0
KMC5 190057Z 36009KT 15/00 A2997 RMK A01 T01510003  RH  036%=      5-min Rain = 0
KMC5 190058Z 35009KT 15/00 A2997 RMK A01 T01510003  RH  036%=      5-min Rain = 0
KMC5 190059Z 36009KT 15/00 A2997 RMK A01 T01510003  RH  036%=      5-min Rain = 0
KMC5 190100Z 35008KT 15/00 A2997 RMK A01 T01510002  RH  036%=      5-min Rain = 0
KMC5 190101Z 35008KT 15/00 A2997 RMK A01 T01510002  RH  036%=      5-min Rain = 0
KMC5 190102Z 35008KT 15/00 A2997 RMK A01 T01510003  RH  036%=      5-min Rain = 0
KMC5 190103Z 35008KT 15/00 A2997 RMK A01 T01510002  RH  036%=      5-min Rain = 0
KMC5 190104Z 35008KT 15/00 A2997 RMK A01 T01510002  RH  036%=      5-min Rain = 0
KMC5 190105Z 35008KT 15/00 A2997 RMK A01 T01510002  RH  036%=      5-min Rain = 0
KMC5 190106Z 35009KT 15/00 A2997 RMK A01 T01500002  RH  036%=      5-min Rain = 0
KMC5 190107Z 00009KT 15/00 A2997 RMK A01 T01490002  RH  037%=      5-min Rain = 0
KMC5 190108Z 00009KT 15/00 A2997 RMK A01 T01480002  RH  037%=      5-min Rain = 0
KMC5 190109Z 36009KT 15/00 A2997 RMK A01 T01480002  RH  037%=      5-min Rain = 0
KMC5 190110Z 35009KT 15/00 A2997 RMK A01 T01490003  RH  037%=      5-min Rain = 0
KMC5 190111Z 35009KT 15/00 A2996 RMK A01 T01500003  RH  037%=      5-min Rain = 0
KMC5 190112Z 35009KT 15/00 A2996 RMK A01 T01510003  RH  036%=      5-min Rain = 0
KMC5 190113Z 36009KT 15/00 A2996 RMK A01 T01510003  RH  036%=      5-min Rain = 0
KMC5 190114Z 36009KT 15/00 A2996 RMK A01 T01510003  RH  036%=      5-min Rain = 0
KMC5 190115Z 36009KT 15/00 A2996 RMK A01 T01510003  RH  036%=      5-min Rain = 0
KMC5 190116Z 00009KT 15/00 A2996 RMK A01 T01510003  RH  036%=      5-min Rain = 0
KMC5 190117Z 00009KT 15/00 A2997 RMK A01 T01520003  RH  036%=      5-min Rain = 0
KMC5 190118Z 00009KT 15/00 A2997 RMK A01 T01520003  RH  036%=      5-min Rain = 0
KMC5 190119Z 00009KT 15/00 A2997 RMK A01 T01530003  RH  036%=      5-min Rain = 0
KMC5 190120Z 00008KT 15/00 A2997 RMK A01 T01530002  RH  036%=      5-min Rain = 0
KMC5 190121Z 00008KT 15/00 A2997 RMK A01 T01530002  RH  036%=      5-min Rain = 0
KMC5 190122Z 36009KT 15/00 A2997 RMK A01 T01530002  RH  036%=      5-min Rain = 0
KMC5 190123Z 35009KT 15/00 A2996 RMK A01 T01530002  RH  036%=      5-min Rain = 0
KMC5 190124Z 35009KT 15/00 A2996 RMK A01 T01530002  RH  036%=      5-min Rain = 0
KMC5 190125Z 35009KT 15/00 A2996 RMK A01 T01540002  RH  036%=      5-min Rain = 0
KMC5 190126Z 36009KT 15/00 A2996 RMK A01 T01540002  RH  035%=      5-min Rain = 0
KMC5 190127Z 00008KT 15/00 A2996 RMK A01 T01540002  RH  035%=      5-min Rain = 0
KMC5 190128Z 36008KT 15/00 A2996 RMK A01 T01540002  RH  036%=      5-min Rain = 0
KMC5 190129Z 36008KT 15/00 A2996 RMK A01 T01530002  RH  036%=      5-min Rain = 0
KMC5 190130Z 36008KT 15/00 A2996 RMK A01 T01530002  RH  036%=      5-min Rain = 0
KMC5 190131Z 35008KT 15/00 A2996 RMK A01 T01530002  RH  036%=      5-min Rain = 0
KMC5 190132Z 35008KT 15/00 A2996 RMK A01 T01530002  RH  036%=      5-min Rain = 0
KMC5 190133Z 35008KT 15/00 A2996 RMK A01 T01530002  RH  036%=      5-min Rain = 0
KMC5 190134Z 35008KT 15/00 A2996 RMK A01 T01520002  RH  036%=      5-min Rain = 0
KMC5 190135Z 36008KT 15/00 A2996 RMK A01 T01510001  RH  036%=      5-min Rain = 0
KMC5 190136Z 36008KT 15/00 A2996 RMK A01 T01500002  RH  036%=      5-min Rain = 0
KMC5 190137Z 36008KT 15/00 A2996 RMK A01 T01490001  RH  037%=      5-min Rain = 0
KMC5 190138Z 35008KT 15/00 A2996 RMK A01 T01480002  RH  037%=      5-min Rain = 0
KMC5 190139Z 35008KT 15/00 A2996 RMK A01 T01480002  RH  037%=      5-min Rain = 0
KMC5 190140Z 35007KT 15/00 A2996 RMK A01 T01490002  RH  036%=      5-min Rain = 0
KMC5 190141Z 35007KT 15/00 A2996 RMK A01 T01510002  RH  036%=      5-min Rain = 0
KMC5 190142Z 35007KT 15/00 A2997 RMK A01 T01530002  RH  035%=      5-min Rain = 0
KMC5 190143Z 35007KT 16/00 A2997 RMK A01 T01560002  RH  035%=      5-min Rain = 0
KMC5 190144Z 35007KT 16/00 A2997 RMK A01 T01580001  RH  035%=      5-min Rain = 0
KMC5 190145Z 35007KT 16/00 A2997 RMK A01 T01580001  RH  034%=      5-min Rain = 0
KMC5 190146Z 35007KT 16/00 A2997 RMK A01 T01590001  RH  034%=      5-min Rain = 0
KMC5 190147Z 35006KT 16/00 A2997 RMK A01 T01600001  RH  034%=      5-min Rain = 0
KMC5 190148Z 35006KT 16/00 A2997 RMK A01 T01590001  RH  034%=      5-min Rain = 0
KMC5 190149Z 35006KT 16/00 A2997 RMK A01 T01590001  RH  034%=      5-min Rain = 0
KMC5 190150Z 36006KT 16/00 A2997 RMK A01 T01590001  RH  034%=      5-min Rain = 0
KMC5 190151Z 36006KT 16/00 A2997 RMK A01 T01600001  RH  034%=      5-min Rain = 0
KMC5 190152Z 35005KT 16/00 A2997 RMK A01 T01590001  RH  034%=      5-min Rain = 0
KMC5 190153Z 35004KT 16/00 A2997 RMK A01 T01610001  RH  034%=      5-min Rain = 0
KMC5 190154Z 30003KT 16/M00 A2997 RMK A01 T01571001  RH  034%=      5-min Rain = 0
KMC5 190155Z 27003KT 15/M00 A2997 RMK A01 T01471002  RH  036%=      5-min Rain = 0
KMC5 190156Z 26003KT 14/M00 A2997 RMK A01 T01411003  RH  037%=      5-min Rain = 0
KMC5 190157Z 24003KT 14/M00 A2997 RMK A01 T01351003  RH  039%=      5-min Rain = 0
KMC5 190158Z 20003KT 13/M01 A2997 RMK A01 T01281005  RH  040%=      5-min Rain = 0
KMC5 190159Z 21003KT 12/M00 A2997 RMK A01 T01231004  RH  041%=      5-min Rain = 0
KMC5 190200Z 22003KT 12/M00 A2997 RMK A01 T01221002  RH  042%=      5-min Rain = 0
KMC5 190201Z 23003KT 12/M00 A2997 RMK A01 T01241001  RH  042%=      5-min Rain = 0
KMC5 190202Z 23003KT 13/00 A2997 RMK A01 T012500-0  RH  042%=      5-min Rain = 0
KMC5 190203Z 25002KT 13/00 A2997 RMK A01 T012500-0  RH  042%=      5-min Rain = 0
KMC5 190204Z 25001KT 13/00 A2997 RMK A01 T01270001  RH  042%=      5-min Rain = 0
KMC5 190205Z 24001KT 13/00 A2997 RMK A01 T01280001  RH  042%=      5-min Rain = 0
KMC5 190206Z 23001KT 13/00 A2997 RMK A01 T01300001  RH  041%=      5-min Rain = 0
KMC5 190207Z 24000KT 13/00 A2997 RMK A01 T01310002  RH  041%=      5-min Rain = 0
KMC5 190208Z 28000KT 13/00 A2997 RMK A01 T01310002  RH  041%=      5-min Rain = 0
KMC5 190209Z 00000KT 13/00 A2997 RMK A01 T01330002  RH  041%=      5-min Rain = 0
KMC5 190210Z 32000KT 13/00 A2997 RMK A01 T01340002  RH  040%=      5-min Rain = 0
KMC5 190211Z 33001KT 14/00 A2997 RMK A01 T01360002  RH  040%=      5-min Rain = 0
KMC5 190212Z 34001KT 14/00 A2997 RMK A01 T01390003  RH  039%=      5-min Rain = 0
KMC5 190213Z 34001KT 14/00 A2997 RMK A01 T01430003  RH  038%=      5-min Rain = 0
KMC5 190214Z 34001KT 15/00 A2997 RMK A01 T01460003  RH  038%=      5-min Rain = 0
KMC5 190215Z 34001KT 15/00 A2997 RMK A01 T01490003  RH  037%=      5-min Rain = 0
KMC5 190216Z 34001KT 15/00 A2997 RMK A01 T01500003  RH  037%=      5-min Rain = 0
KMC5 190217Z 34001KT 15/00 A2997 RMK A01 T01500002  RH  036%=      5-min Rain = 0
KMC5 190218Z 35001KT 15/00 A2997 RMK A01 T01500002  RH  036%=      5-min Rain = 0
KMC5 190219Z 35001KT 15/00 A2997 RMK A01 T01500002  RH  036%=      5-min Rain = 0
KMC5 190220Z 36001KT 15/00 A2997 RMK A01 T01490002  RH  037%=      5-min Rain = 0
KMC5 190221Z 01002KT 15/00 A2997 RMK A01 T01490002  RH  037%=      5-min Rain = 0
KMC5 190222Z 01002KT 15/00 A2997 RMK A01 T01480002  RH  037%=      5-min Rain = 0
KMC5 190223Z 01002KT 15/00 A2997 RMK A01 T01480002  RH  037%=      5-min Rain = 0
KMC5 190224Z 00002KT 15/00 A2997 RMK A01 T01490002  RH  037%=      5-min Rain = 0
KMC5 190225Z 00001KT 15/00 A2997 RMK A01 T01490002  RH  036%=      5-min Rain = 0
KMC5 190226Z 00002KT 15/00 A2997 RMK A01 T01490002  RH  036%=      5-min Rain = 0
KMC5 190227Z 01002KT 15/00 A2997 RMK A01 T01500001  RH  036%=      5-min Rain = 0
KMC5 190228Z 36001KT 15/00 A2997 RMK A01 T01510002  RH  036%=      5-min Rain = 0
KMC5 190229Z 35001KT 15/00 A2998 RMK A01 T01510002  RH  036%=      5-min Rain = 0
KMC5 190230Z 34001KT 15/00 A2998 RMK A01 T01500002  RH  036%=      5-min Rain = 0
KMC5 190231Z 35001KT 15/00 A2998 RMK A01 T01490002  RH  037%=      5-min Rain = 0
KMC5 190232Z 34001KT 15/00 A2998 RMK A01 T01480002  RH  037%=      5-min Rain = 0
KMC5 190233Z 33001KT 15/00 A2998 RMK A01 T01480002  RH  037%=      5-min Rain = 0
KMC5 190234Z 34001KT 15/00 A2998 RMK A01 T01480002  RH  037%=      5-min Rain = 0
KMC5 190235Z 35000KT 15/00 A2998 RMK A01 T01480002  RH  037%=      5-min Rain = 0
KMC5 190236Z 00000KT 15/00 A2998 RMK A01 T01490002  RH  036%=      5-min Rain = 0
KMC5 190237Z 00000KT 15/00 A2998 RMK A01 T01500002  RH  036%=      5-min Rain = 0
KMC5 190238Z 00000KT 15/00 A2998 RMK A01 T01500001  RH  036%=      5-min Rain = 0
KMC5 190239Z 35000KT 15/00 A2998 RMK A01 T01500001  RH  036%=      5-min Rain = 0
KMC5 190240Z 35001KT 15/00 A2998 RMK A01 T01500002  RH  036%=      5-min Rain = 0
KMC5 190241Z 35001KT 15/00 A2998 RMK A01 T01490001  RH  037%=      5-min Rain = 0
KMC5 190242Z 35001KT 15/00 A2998 RMK A01 T01470001  RH  037%=      5-min Rain = 0
KMC5 190243Z 36001KT 15/00 A2998 RMK A01 T01460001  RH  037%=      5-min Rain = 0
KMC5 190244Z 35002KT 15/00 A2998 RMK A01 T01450001  RH  037%=      5-min Rain = 0
KMC5 190245Z 36002KT 14/00 A2998 RMK A01 T01440001  RH  038%=      5-min Rain = 0
KMC5 190246Z 36003KT 14/00 A2998 RMK A01 T01440002  RH  038%=      5-min Rain = 0
KMC5 190247Z 00003KT 14/00 A2998 RMK A01 T01440001  RH  038%=      5-min Rain = 0
KMC5 190248Z 36003KT 15/00 A2998 RMK A01 T01460001  RH  037%=      5-min Rain = 0
KMC5 190249Z 00003KT 15/00 A2998 RMK A01 T01480001  RH  037%=      5-min Rain = 0
KMC5 190250Z 00003KT 15/00 A2998 RMK A01 T01490001  RH  036%=      5-min Rain = 0
KMC5 190251Z 01003KT 15/00 A2998 RMK A01 T01500000  RH  036%=      5-min Rain = 0
KMC5 190252Z 01003KT 15/00 A2998 RMK A01 T01500000  RH  036%=      5-min Rain = 0
KMC5 190253Z 01003KT 15/00 A2998 RMK A01 T01490000  RH  036%=      5-min Rain = 0
KMC5 190254Z 00004KT 15/00 A2998 RMK A01 T01480000  RH  036%=      5-min Rain = 0
KMC5 190255Z 00005KT 15/00 A2998 RMK A01 T01470000  RH  037%=      5-min Rain = 0
KMC5 190256Z 00005KT 15/00 A2998 RMK A01 T01460000  RH  037%=      5-min Rain = 0
KMC5 190257Z 00006KT 15/00 A2998 RMK A01 T01460000  RH  037%=      5-min Rain = 0
KMC5 190258Z 01006KT 15/00 A2998 RMK A01 T01450001  RH  037%=      5-min Rain = 0
KMC5 190259Z 01007KT 14/00 A2998 RMK A01 T01440001  RH  038%=      5-min Rain = 0
KMC5 190300Z 01007KT 14/00 A2998 RMK A01 T01420001  RH  038%=      5-min Rain = 0
KMC5 190301Z 01007KT 14/00 A2998 RMK A01 T01410001  RH  038%=      5-min Rain = 0
KMC5 190302Z 01006KT 14/00 A2998 RMK A01 T01400001  RH  039%=      5-min Rain = 0
KMC5 190303Z 01006KT 14/00 A2998 RMK A01 T01400001  RH  039%=      5-min Rain = 0
KMC5 190304Z 01006KT 14/00 A2998 RMK A01 T01390001  RH  039%=      5-min Rain = 0
KMC5 190305Z 01006KT 14/00 A2998 RMK A01 T01390001  RH  039%=      5-min Rain = 0
KMC5 190306Z 01006KT 14/00 A2998 RMK A01 T01390001  RH  039%=      5-min Rain = 0
KMC5 190307Z 01006KT 14/00 A2998 RMK A01 T01400001  RH  038%=      5-min Rain = 0
KMC5 190308Z 01005KT 14/00 A2998 RMK A01 T01410001  RH  038%=      5-min Rain = 0
KMC5 190309Z 01005KT 14/00 A2998 RMK A01 T01420001  RH  038%=      5-min Rain = 0
KMC5 190310Z 01005KT 14/00 A2998 RMK A01 T01430001  RH  038%=      5-min Rain = 0
KMC5 190311Z 01005KT 14/00 A2998 RMK A01 T01440001  RH  038%=      5-min Rain = 0
KMC5 190312Z 01005KT 14/00 A2998 RMK A01 T01440001  RH  037%=      5-min Rain = 0
KMC5 190313Z 01004KT 15/00 A2998 RMK A01 T01450000  RH  037%=      5-min Rain = 0
KMC5 190314Z 01004KT 15/00 A2998 RMK A01 T01460001  RH  037%=      5-min Rain = 0
KMC5 190315Z 00004KT 15/00 A2998 RMK A01 T01470001  RH  037%=      5-min Rain = 0
KMC5 190316Z 01004KT 15/00 A2998 RMK A01 T01490001  RH  036%=      5-min Rain = 0
KMC5 190317Z 01003KT 15/00 A2999 RMK A01 T01500001  RH  036%=      5-min Rain = 0
KMC5 190318Z 00003KT 15/00 A2999 RMK A01 T01510001  RH  036%=      5-min Rain = 0
KMC5 190319Z 00003KT 15/00 A2999 RMK A01 T01520001  RH  036%=      5-min Rain = 0
KMC5 190320Z 36002KT 15/00 A2999 RMK A01 T01530001  RH  035%=      5-min Rain = 0
KMC5 190321Z 36002KT 15/00 A2999 RMK A01 T01530001  RH  035%=      5-min Rain = 0
KMC5 190322Z 35002KT 15/M00 A2999 RMK A01 T01501001  RH  036%=      5-min Rain = 0
KMC5 190323Z 34002KT 14/M00 A2999 RMK A01 T01391003  RH  038%=      5-min Rain = 0
KMC5 190324Z 34002KT 13/M00 A2999 RMK A01 T01321002  RH  040%=      5-min Rain = 0
KMC5 190325Z 34001KT 13/M00 A2999 RMK A01 T01281002  RH  041%=      5-min Rain = 0
KMC5 190326Z 35001KT 12/M00 A2999 RMK A01 T01241002  RH  042%=      5-min Rain = 0
KMC5 190327Z 35001KT 12/M00 A2998 RMK A01 T01221001  RH  043%=      5-min Rain = 0
KMC5 190328Z 36002KT 12/00 A2998 RMK A01 T012200-0  RH  043%=      5-min Rain = 0
KMC5 190329Z 00002KT 12/00 A2998 RMK A01 T01230000  RH  043%=      5-min Rain = 0
KMC5 190330Z 01002KT 13/00 A2999 RMK A01 T01250001  RH  042%=      5-min Rain = 0
KMC5 190331Z 01002KT 13/00 A2999 RMK A01 T01290001  RH  042%=      5-min Rain = 0
KMC5 190332Z 01002KT 13/00 A2999 RMK A01 T01330002  RH  040%=      5-min Rain = 0
KMC5 190333Z 01003KT 14/00 A2999 RMK A01 T01370001  RH  039%=      5-min Rain = 0
KMC5 190334Z 01003KT 14/00 A2999 RMK A01 T01420002  RH  038%=      5-min Rain = 0
KMC5 190335Z 01002KT 15/00 A2999 RMK A01 T01450002  RH  038%=      5-min Rain = 0
KMC5 190336Z 01002KT 15/00 A2999 RMK A01 T01470002  RH  037%=      5-min Rain = 0
KMC5 190337Z 01002KT 15/00 A2999 RMK A01 T01480002  RH  037%=      5-min Rain = 0
KMC5 190338Z 01002KT 15/00 A2999 RMK A01 T01490002  RH  037%=      5-min Rain = 0
KMC5 190339Z 02002KT 15/00 A2999 RMK A01 T01500002  RH  037%=      5-min Rain = 0
KMC5 190340Z 02002KT 15/00 A2999 RMK A01 T01510002  RH  036%=      5-min Rain = 0
KMC5 190341Z 02002KT 15/00 A2999 RMK A01 T01520003  RH  036%=      5-min Rain = 0
KMC5 190342Z 02001KT 15/00 A2999 RMK A01 T01520002  RH  036%=      5-min Rain = 0
KMC5 190343Z 02001KT 15/00 A2999 RMK A01 T01530002  RH  036%=      5-min Rain = 0
KMC5 190344Z 02001KT 15/00 A2999 RMK A01 T01540003  RH  036%=      5-min Rain = 0
KMC5 190345Z 02001KT 16/00 A2999 RMK A01 T01550003  RH  035%=      5-min Rain = 0
KMC5 190346Z 00000KT 16/00 A2999 RMK A01 T01550003  RH  035%=      5-min Rain = 0
KMC5 190347Z 00000KT 16/00 A2999 RMK A01 T01560003  RH  035%=      5-min Rain = 0
KMC5 190348Z 26001KT 15/M00 A2999 RMK A01 T01501001  RH  036%=      5-min Rain = 0
KMC5 190349Z 33001KT 13/M01 A2999 RMK A01 T01341005  RH  038%=      5-min Rain = 0
KMC5 190350Z 35000KT 13/M00 A2999 RMK A01 T01251004  RH  041%=      5-min Rain = 0
KMC5 190351Z 36001KT 12/M00 A2999 RMK A01 T01201004  RH  043%=      5-min Rain = 0
KMC5 190352Z 02000KT 12/M00 A2999 RMK A01 T01161003  RH  044%=      5-min Rain = 0
KMC5 190353Z 04001KT 11/M00 A2999 RMK A01 T01141002  RH  044%=      5-min Rain = 0
KMC5 190354Z 04001KT 11/M00 A2999 RMK A01 T01141002  RH  045%=      5-min Rain = 0
KMC5 190355Z 04001KT 11/M00 A2999 RMK A01 T01141001  RH  045%=      5-min Rain = 0
KMC5 190356Z 04000KT 12/00 A2999 RMK A01 T01170000  RH  044%=      5-min Rain = 0
KMC5 190357Z 04000KT 12/00 A2999 RMK A01 T01220001  RH  043%=      5-min Rain = 0
KMC5 190358Z 03001KT 12/00 A2999 RMK A01 T01240001  RH  043%=      5-min Rain = 0
KMC5 190359Z 03000KT 13/00 A2999 RMK A01 T01250000  RH  042%=      5-min Rain = 0
KMC5 190400Z 03001KT 13/00 A2999 RMK A01 T01250001  RH  042%=      5-min Rain = 0
KMC5 190401Z 04001KT 13/00 A2999 RMK A01 T01260001  RH  042%=      5-min Rain = 0
KMC5 190402Z 04001KT 13/00 A2999 RMK A01 T01290002  RH  042%=      5-min Rain = 0
KMC5 190403Z 04001KT 13/00 A2999 RMK A01 T01340004  RH  041%=      5-min Rain = 0
KMC5 190404Z 04001KT 14/01 A2999 RMK A01 T01400005  RH  040%=      5-min Rain = 0
KMC5 190405Z 04001KT 14/01 A2999 RMK A01 T01440005  RH  039%=      5-min Rain = 0
KMC5 190406Z 04001KT 15/01 A2999 RMK A01 T01480005  RH  038%=      5-min Rain = 0
KMC5 190407Z 05001KT 15/01 A2999 RMK A01 T01500005  RH  037%=      5-min Rain = 0
KMC5 190408Z 05001KT 15/01 A2999 RMK A01 T01530006  RH  037%=      5-min Rain = 0
KMC5 190409Z 05001KT 15/01 A2999 RMK A01 T01540006  RH  036%=      5-min Rain = 0
KMC5 190410Z 05001KT 16/01 A2999 RMK A01 T01550006  RH  036%=      5-min Rain = 0
KMC5 190411Z 05000KT 16/01 A2999 RMK A01 T01550005  RH  036%=      5-min Rain = 0
KMC5 190412Z 00000KT 16/01 A2999 RMK A01 T01560005  RH  036%=      5-min Rain = 0
KMC5 190413Z 00000KT 16/01 A2999 RMK A01 T01560005  RH  036%=      5-min Rain = 0
KMC5 190414Z 00000KT 15/M00 A2999 RMK A01 T01481001  RH  036%=      5-min Rain = 0
KMC5 190415Z 00000KT 14/M00 A2999 RMK A01 T01361003  RH  038%=      5-min Rain = 0
KMC5 190416Z 00000KT 13/M00 A2999 RMK A01 T01271003  RH  041%=      5-min Rain = 0
KMC5 190417Z 22000KT 12/M00 A2999 RMK A01 T01211003  RH  042%=      5-min Rain = 0
KMC5 190418Z 23001KT 12/M00 A2999 RMK A01 T01161003  RH  044%=      5-min Rain = 0
KMC5 190419Z 24002KT 11/M00 A2999 RMK A01 T01111003  RH  045%=      5-min Rain = 0
KMC5 190420Z 24002KT 11/M00 A2999 RMK A01 T01091002  RH  046%=      5-min Rain = 0
KMC5 190421Z 23002KT 11/M00 A2999 RMK A01 T01091001  RH  047%=      5-min Rain = 0
KMC5 190422Z 24002KT 11/M00 A2999 RMK A01 T01081002  RH  047%=      5-min Rain = 0
KMC5 190423Z 23002KT 11/M00 A2999 RMK A01 T01071001  RH  047%=      5-min Rain = 0
KMC5 190424Z 24002KT 11/M00 A2999 RMK A01 T01061001  RH  047%=      5-min Rain = 0
KMC5 190425Z 24003KT 11/M00 A2999 RMK A01 T01051002  RH  048%=      5-min Rain = 0
KMC5 190426Z 24003KT 10/M00 A2999 RMK A01 T01041002  RH  048%=      5-min Rain = 0
KMC5 190427Z 25003KT 10/M00 A2999 RMK A01 T01031001  RH  048%=      5-min Rain = 0
KMC5 190428Z 24003KT 10/M00 A2999 RMK A01 T01021002  RH  049%=      5-min Rain = 0
KMC5 190429Z 24003KT 10/M00 A2999 RMK A01 T01001002  RH  049%=      5-min Rain = 0
KMC5 190430Z 23002KT 10/M00 A2999 RMK A01 T00991002  RH  049%=      5-min Rain = 0
KMC5 190431Z 21002KT 10/M00 A2999 RMK A01 T00991002  RH  050%=      5-min Rain = 0
KMC5 190432Z 22002KT 10/M00 A2999 RMK A01 T00991001  RH  050%=      5-min Rain = 0
KMC5 190433Z 21002KT 10/M00 A2999 RMK A01 T01001001  RH  049%=      5-min Rain = 0
KMC5 190434Z 19001KT 10/M00 A2999 RMK A01 T01011001  RH  049%=      5-min Rain = 0
KMC5 190435Z 17001KT 10/00 A2999 RMK A01 T01030000  RH  049%=      5-min Rain = 0
KMC5 190436Z 15001KT 11/00 A2999 RMK A01 T01060000  RH  048%=      5-min Rain = 0
KMC5 190437Z 13001KT 11/00 A2999 RMK A01 T010800-0  RH  047%=      5-min Rain = 0
KMC5 190438Z 12001KT 11/00 A2999 RMK A01 T011000-0  RH  047%=      5-min Rain = 0
KMC5 190439Z 11002KT 11/00 A2999 RMK A01 T011100-0  RH  046%=      5-min Rain = 0
KMC5 190440Z 10002KT 11/00 A2999 RMK A01 T01130001  RH  046%=      5-min Rain = 0
KMC5 190441Z 09002KT 12/00 A2999 RMK A01 T01170001  RH  045%=      5-min Rain = 0
KMC5 190442Z 09003KT 12/00 A2999 RMK A01 T01200002  RH  044%=      5-min Rain = 0
KMC5 190443Z 09003KT 12/00 A2999 RMK A01 T01240003  RH  044%=      5-min Rain = 0
KMC5 190444Z 09002KT 13/01 A2999 RMK A01 T01270005  RH  043%=      5-min Rain = 0
KMC5 190445Z 08002KT 13/01 A2999 RMK A01 T01310006  RH  042%=      5-min Rain = 0
KMC5 190446Z 07002KT 13/01 A2999 RMK A01 T01330006  RH  042%=      5-min Rain = 0
KMC5 190447Z 07003KT 14/01 A2999 RMK A01 T01360008  RH  042%=      5-min Rain = 0
KMC5 190448Z 07003KT 14/01 A2999 RMK A01 T01400009  RH  041%=      5-min Rain = 0
KMC5 190449Z 07003KT 14/01 A2999 RMK A01 T01430009  RH  040%=      5-min Rain = 0
KMC5 190450Z 06003KT 15/01 A2999 RMK A01 T01480010  RH  039%=      5-min Rain = 0
KMC5 190451Z 06003KT 15/01 A2999 RMK A01 T01520010  RH  038%=      5-min Rain = 0
KMC5 190452Z 06003KT 16/01 A2999 RMK A01 T01550009  RH  037%=      5-min Rain = 0
KMC5 190453Z 06004KT 16/01 A2999 RMK A01 T01570009  RH  037%=      5-min Rain = 0
KMC5 190454Z 06004KT 16/01 A2998 RMK A01 T01580008  RH  036%=      5-min Rain = 0
KMC5 190455Z 06004KT 16/01 A2998 RMK A01 T01580008  RH  036%=      5-min Rain = 0
KMC5 190456Z 06004KT 16/01 A2998 RMK A01 T01590008  RH  036%=      5-min Rain = 0
KMC5 190457Z 06004KT 16/01 A2998 RMK A01 T01590007  RH  036%=      5-min Rain = 0
KMC5 190458Z 06004KT 16/01 A2998 RMK A01 T01590007  RH  036%=      5-min Rain = 0
KMC5 190459Z 06004KT 16/01 A2998 RMK A01 T01580007  RH  036%=      5-min Rain = 0
KMC5 190500Z 06005KT 16/01 A2998 RMK A01 T01570007  RH  036%=      5-min Rain = 0
KMC5 190501Z 06005KT 16/01 A2998 RMK A01 T01560007  RH  036%=      5-min Rain = 0
KMC5 190502Z 06005KT 16/01 A2998 RMK A01 T01560006  RH  036%=      5-min Rain = 0
KMC5 190503Z 06005KT 16/01 A2998 RMK A01 T01560006  RH  036%=      5-min Rain = 0
KMC5 190504Z 06005KT 16/01 A2998 RMK A01 T01560007  RH  036%=      5-min Rain = 0
KMC5 190505Z 06005KT 16/01 A2998 RMK A01 T01560007  RH  036%=      5-min Rain = 0
KMC5 190506Z 06005KT 16/01 A2998 RMK A01 T01550006  RH  036%=      5-min Rain = 0
KMC5 190507Z 06005KT 15/01 A2998 RMK A01 T01540006  RH  037%=      5-min Rain = 0
KMC5 190508Z 06006KT 15/01 A2998 RMK A01 T01520006  RH  037%=      5-min Rain = 0
KMC5 190509Z 06006KT 15/01 A2998 RMK A01 T01510006  RH  037%=      5-min Rain = 0
KMC5 190510Z 06005KT 15/01 A2998 RMK A01 T01510006  RH  037%=      5-min Rain = 0
KMC5 190511Z 06005KT 15/01 A2998 RMK A01 T01500006  RH  037%=      5-min Rain = 0
KMC5 190512Z 05005KT 15/01 A2998 RMK A01 T01490006  RH  037%=      5-min Rain = 0
KMC5 190513Z 05005KT 15/01 A2998 RMK A01 T01490006  RH  038%=      5-min Rain = 0
KMC5 190514Z 05005KT 15/01 A2998 RMK A01 T01480006  RH  038%=      5-min Rain = 0
KMC5 190515Z 05006KT 15/01 A2998 RMK A01 T01480006  RH  038%=      5-min Rain = 0
KMC5 190516Z 05005KT 15/01 A2998 RMK A01 T01460005  RH  038%=      5-min Rain = 0
KMC5 190517Z 05006KT 15/01 A2998 RMK A01 T01450006  RH  039%=      5-min Rain = 0
KMC5 190518Z 05006KT 14/01 A2998 RMK A01 T01430005  RH  039%=      5-min Rain = 0
KMC5 190519Z 05006KT 14/01 A2998 RMK A01 T01430005  RH  039%=      5-min Rain = 0
KMC5 190520Z 05006KT 14/01 A2998 RMK A01 T01410006  RH  040%=      5-min Rain = 0
KMC5 190521Z 05006KT 14/01 A2998 RMK A01 T01400006  RH  040%=      5-min Rain = 0
KMC5 190522Z 06006KT 14/01 A2998 RMK A01 T01390006  RH  040%=      5-min Rain = 0
KMC5 190523Z 06005KT 14/01 A2998 RMK A01 T01370006  RH  040%=      5-min Rain = 0
KMC5 190524Z 06005KT 14/01 A2998 RMK A01 T01370006  RH  041%=      5-min Rain = 0
KMC5 190525Z 06005KT 14/01 A2998 RMK A01 T01370006  RH  041%=      5-min Rain = 0
KMC5 190526Z 06004KT 14/01 A2998 RMK A01 T01380006  RH  040%=      5-min Rain = 0
KMC5 190527Z 06004KT 14/01 A2998 RMK A01 T01390006  RH  040%=      5-min Rain = 0
KMC5 190528Z 06004KT 14/01 A2998 RMK A01 T01400006  RH  040%=      5-min Rain = 0
KMC5 190529Z 07004KT 14/01 A2998 RMK A01 T01410006  RH  040%=      5-min Rain = 0
KMC5 190530Z 07004KT 14/01 A2998 RMK A01 T01410006  RH  040%=      5-min Rain = 0
KMC5 190531Z 07004KT 14/01 A2998 RMK A01 T01420006  RH  040%=      5-min Rain = 0
KMC5 190532Z 07004KT 14/01 A2998 RMK A01 T01420006  RH  039%=      5-min Rain = 0
KMC5 190533Z 07004KT 14/01 A2998 RMK A01 T01430006  RH  039%=      5-min Rain = 0
KMC5 190534Z 07004KT 14/01 A2998 RMK A01 T01440006  RH  039%=      5-min Rain = 0
KMC5 190535Z 07004KT 14/01 A2998 RMK A01 T01440006  RH  039%=      5-min Rain = 0
KMC5 190536Z 07004KT 14/01 A2998 RMK A01 T01440006  RH  039%=      5-min Rain = 0
KMC5 190537Z 07004KT 14/01 A2998 RMK A01 T01440006  RH  039%=      5-min Rain = 0
KMC5 190538Z 07004KT 14/01 A2998 RMK A01 T01440006  RH  039%=      5-min Rain = 0
KMC5 190539Z 07004KT 15/01 A2998 RMK A01 T01450006  RH  039%=      5-min Rain = 0
KMC5 190540Z 07005KT 15/01 A2998 RMK A01 T01450006  RH  039%=      5-min Rain = 0
KMC5 190541Z 07005KT 15/01 A2998 RMK A01 T01460006  RH  039%=      5-min Rain = 0
KMC5 190542Z 07005KT 15/01 A2998 RMK A01 T01460006  RH  038%=      5-min Rain = 0
KMC5 190543Z 07005KT 15/01 A2998 RMK A01 T01460006  RH  038%=      5-min Rain = 0
KMC5 190544Z 07006KT 15/01 A2998 RMK A01 T01460006  RH  038%=      5-min Rain = 0
KMC5 190545Z 07006KT 15/01 A2998 RMK A01 T01460005  RH  038%=      5-min Rain = 0
KMC5 190546Z 07006KT 15/01 A2997 RMK A01 T01450006  RH  038%=      5-min Rain = 0
KMC5 190547Z 07006KT 14/01 A2997 RMK A01 T01440005  RH  039%=      5-min Rain = 0
KMC5 190548Z 07007KT 14/01 A2997 RMK A01 T01420005  RH  039%=      5-min Rain = 0
KMC5 190549Z 07007KT 14/01 A2997 RMK A01 T01410005  RH  039%=      5-min Rain = 0
KMC5 190550Z 07007KT 14/01 A2997 RMK A01 T01410005  RH  040%=      5-min Rain = 0
KMC5 190551Z 07007KT 14/01 A2997 RMK A01 T01400005  RH  040%=      5-min Rain = 0
KMC5 190552Z 07007KT 14/01 A2997 RMK A01 T01390005  RH  040%=      5-min Rain = 0
KMC5 190553Z 07007KT 14/01 A2997 RMK A01 T01370005  RH  040%=      5-min Rain = 0
KMC5 190554Z 07007KT 14/01 A2997 RMK A01 T01360005  RH  041%=      5-min Rain = 0
KMC5 190555Z 07007KT 14/01 A2997 RMK A01 T01360005  RH  041%=      5-min Rain = 0
KMC5 190556Z 07007KT 13/01 A2997 RMK A01 T01340005  RH  041%=      5-min Rain = 0
KMC5 190557Z 07006KT 13/01 A2997 RMK A01 T01330005  RH  041%=      5-min Rain = 0
KMC5 190558Z 07007KT 13/01 A2997 RMK A01 T01330005  RH  041%=      5-min Rain = 0
KMC5 190559Z 07007KT 13/01 A2997 RMK A01 T01340005  RH  041%=      5-min Rain = 0

Page generated in 0.0692 seconds.